GFSWCAN_925_rhum_174.txt.gz
RH
80 81 87 81 80 82 85 87 89 93 98 99 94 91 87 84 83 74 88 69 78 75 64 55 51 54 57 55 58 62 64 65 66 69 62 60 59 55 55 44 60 72 82 82 69 73 79 42 44 52 56 44 46 50
82 91 92 84 84 89 94 91 92 94 96 97 91 87 88 88 88 82 89 75 70 81 80 65 63 62 59 59 61 58 63 55 67 67 67 64 67 61 55 59 46 62 50 56 55 61 49 41 43 45 48 52 55 58
99 100 92 91 96 98 94 88 84 78 73 69 65 63 68 94 96 88 94 80 81 88 85 82 79 74 67 63 58 69 66 61 62 65 76 76 77 63 71 64 54 46 41 58 55 43 43 39 41 45 55 57 56 55
100 100 100 100 99 92 84 80 80 76 61 53 50 51 54 69 100 98 93 80 84 85 96 85 68 70 73 75 70 70 68 64 62 67 76 84 89 67 76 72 70 56 54 56 59 50 46 40 54 61 59 54 56 56
100 100 98 92 90 82 91 93 93 96 92 85 90 93 84 61 95 100 98 84 78 89 94 88 72 82 76 77 84 83 76 74 80 94 94 95 93 84 85 86 82 58 55 61 62 49 52 57 54 62 64 63 65 68
100 99 98 93 85 84 95 93 94 98 99 96 95 92 89 83 97 100 99 98 89 90 96 100 88 80 80 79 84 85 83 82 89 94 91 83 73 80 95 95 56 51 48 49 60 56 56 51 55 66 70 67 63 64
100 100 98 96 95 94 89 83 85 90 98 99 99 95 88 94 100 98 96 99 100 94 96 100 100 86 83 81 84 86 86 91 92 96 99 92 93 88 99 84 59 51 54 53 51 56 58 55 63 60 58 60 53 47
100 99 94 99 98 96 91 85 80 77 86 97 100 100 100 100 97 95 100 99 100 93 95 100 99 83 79 88 95 81 93 92 98 93 99 100 99 99 98 88 66 57 53 55 59 61 61 55 57 59 57 52 49 51
100 99 91 79 81 83 88 81 79 72 70 64 75 77 78 86 97 100 99 98 95 95 99 100 92 95 75 81 82 83 79 93 86 91 98 98 90 96 82 72 54 58 63 54 58 61 61 65 65 57 49 46 47 46
99 80 76 87 76 68 82 85 80 67 57 48 45 59 100 100 99 97 93 97 98 100 100 100 78 89 76 80 81 85 78 84 94 76 84 98 84 60 51 50 50 50 59 53 65 72 65 62 60 54 49 42 41 42
87 94 96 69 82 78 78 92 84 77 71 60 80 91 93 90 83 78 95 95 97 94 95 97 84 92 74 85 91 82 97 92 90 88 86 89 86 55 43 45 48 48 56 58 62 49 41 45 51 60 59 50 47 46
77 78 76 79 78 89 82 88 82 60 61 68 79 83 78 82 91 84 94 86 88 82 80 84 84 77 85 78 87 95 95 93 95 80 94 94 64 44 51 49 56 56 52 56 54 60 58 55 55 58 58 58 58 56
88 80 82 85 82 80 90 94 81 53 68 64 79 90 93 96 93 88 90 95 94 86 91 90 91 86 94 88 94 92 88 94 77 94 84 75 53 53 67 65 56 53 53 56 58 55 57 61 60 63 67 64 60 50
90 88 86 81 80 82 83 94 88 69 60 92 90 89 93 99 94 88 83 90 88 91 89 85 89 90 83 91 92 93 92 94 96 97 87 85 61 61 61 63 70 65 64 65 63 59 58 60 61 56 57 48 42 45
90 91 88 76 79 83 86 91 94 75 72 91 89 85 98 87 94 97 95 90 87 83 85 92 94 84 90 93 90 92 98 97 84 85 76 88 69 73 77 68 70 69 57 43 36 37 39 40 41 41 41 43 44 46
92 88 82 79 86 76 87 99 99 99 96 91 82 89 86 92 99 96 96 97 88 88 87 90 82 82 94 82 93 95 92 91 82 89 91 82 77 66 60 58 48 41 39 38 38 41 43 45 45 45 46 48 50 51
88 79 74 79 93 92 98 88 97 99 98 97 98 91 86 91 94 94 82 77 75 89 96 90 93 89 94 98 95 86 92 86 90 92 89 70 64 61 55 46 44 44 44 44 46 47 49 50 52 57 60 56 56 56
88 78 89 97 81 85 86 94 94 96 96 98 98 95 67 52 68 65 69 77 89 93 95 94 91 93 95 96 92 85 86 86 85 77 73 67 56 51 48 54 45 45 49 51 52 56 60 64 65 62 58 57 58 58
72 80 90 77 74 79 93 97 95 95 96 97 94 87 74 70 62 55 73 72 72 79 92 96 96 97 92 83 82 81 90 89 71 62 56 42 40 43 45 47 50 55 60 64 65 63 61 60 60 60 61 61 63 62
65 71 83 78 73 84 96 95 99 90 88 96 95 98 96 93 74 69 77 87 89 97 93 91 94 82 81 64 66 70 64 61 58 60 53 52 44 45 46 50 55 54 58 59 59 58 58 58 57 58 59 61 64 66
80 78 82 79 77 77 93 92 93 88 88 98 98 96 98 97 97 97 96 90 87 85 95 90 81 64 49 48 47 48 55 53 61 58 57 61 53 52 55 56 49 52 58 59 62 63 65 68 69 71 72 73 76 86
96 88 95 85 90 97 93 93 97 92 92 88 94 92 97 99 99 98 92 92 88 93 88 74 61 62 62 59 53 48 49 51 53 58 58 58 68 75 64 50 59 68 74 75 76 77 75 74 74 77 89 96 94 96
91 81 96 94 93 88 92 98 94 93 96 94 92 91 98 99 97 95 97 88 90 84 71 65 62 58 61 57 57 56 57 59 69 67 62 51 46 46 50 59 63 70 77 73 72 75 78 77 84 90 97 96 96 86
76 83 93 100 95 96 96 99 97 97 90 90 96 98 98 99 98 98 100 96 91 83 88 82 69 88 77 78 91 72 56 51 58 55 52 56 71 67 66 70 72 74 75 78 80 84 92 93 85 93 93 95 94 91
96 96 95 97 97 96 98 99 98 99 99 99 100 98 99 99 100 100 99 91 96 92 92 82 84 94 93 89 64 51 50 60 70 89 76 73 74 80 82 78 79 80 79 85 95 93 91 91 93 96 96 95 95 96
96 96 96 93 98 94 94 100 99 96 95 99 98 98 98 100 100 94 93 94 95 95 95 94 92 90 88 67 73 74 75 78 78 90 78 77 75 87 92 94 92 85 85 97 98 96 95 93 93 94 95 92 87 91
96 98 97 91 89 89 95 87 85 94 96 95 98 100 97 100 96 89 93 91 97 85 81 81 82 87 92 89 80 72 69 69 80 81 76 72 71 76 83 96 94 94 97 98 100 98 97 96 96 96 96 95 95 97
93 95 96 96 95 96 94 95 95 95 95 89 84 100 98 87 88 96 98 89 89 90 87 78 75 74 76 72 72 73 71 72 71 72 69 69 73 74 80 90 95 99 97 98 97 97 99 99 99 98 98 98 97 96
97 96 92 98 96 96 94 92 91 90 78 85 92 93 93 93 98 100 93 97 92 84 85 88 87 88 86 80 71 76 76 82 99 100 99 93 85 79 87 95 97 98 97 100 100 99 97 97 97 97 98 98 96 96
98 94 94 95 95 95 94 92 95 94 91 88 87 92 94 97 98 98 93 90 92 97 97 96 96 95 98 96 94 89 77 80 91 96 97 94 93 96 97 98 97 97 100 100 97 97 96 99 93 88 90 91 93 93
96 95 93 95 95 95 97 94 92 90 97 98 99 96 98 100 97 95 94 94 95 92 92 92 92 87 91 97 100 100 95 87 90 94 98 100 100 99 98 97 98 99 99 99 97 98 98 96 96 97 96 97 96 98
93 100 100 94 94 96 97 98 100 98 98 97 98 97 97 98 99 99 94 84 87 93 93 94 98 95 84 87 89 87 99 98 92 92 97 98 100 99 97 99 100 98 97 97 97 98 98 96 96 96 96 98 98 96
99 99 99 100 97 94 98 95 97 97 98 98 98 98 98 98 97 97 98 96 89 94 97 96 85 77 75 78 80 84 88 92 91 98 98 100 100 98 96 97 99 97 96 96 95 97 96 96 96 95 96 96 95 96

GFSWCAN_925_rhum_177.txt.gz
RH
96 92 100 96 78 71 78 82 76 72 78 80 82 94 92 89 86 78 79 68 76 84 74 54 53 57 57 63 67 64 65 68 76 76 78 72 69 61 58 60 75 77 89 89 83 87 86 46 45 52 53 50 53 59
74 92 100 99 88 74 80 85 81 80 81 85 90 89 93 95 93 87 84 76 72 81 79 64 64 64 58 58 66 65 63 66 70 78 79 76 72 71 67 66 48 60 62 70 68 68 50 48 48 46 54 56 61 62
80 95 100 99 95 80 86 88 85 88 91 89 90 99 100 95 100 91 83 81 78 92 88 85 78 72 65 60 63 70 73 62 69 70 84 83 74 74 77 78 56 48 51 57 51 46 50 44 56 57 60 65 60 58
100 100 100 100 94 86 94 91 92 97 93 89 89 85 78 74 99 100 94 82 84 88 96 89 72 74 74 74 69 68 65 64 67 75 81 87 87 70 81 73 73 61 57 60 66 57 49 56 67 67 61 58 59 58
100 100 100 100 100 100 99 100 99 89 81 75 67 62 61 61 77 100 98 88 76 82 95 93 76 82 77 79 81 76 69 77 85 88 92 95 92 84 89 90 94 64 60 65 62 53 58 61 67 63 67 70 68 68
100 99 100 100 100 100 99 96 90 75 62 49 58 73 76 68 81 100 100 99 93 88 96 100 90 84 83 84 84 87 85 88 92 92 94 87 80 79 98 94 70 62 55 56 65 56 60 59 66 64 66 70 66 66
100 99 99 100 100 100 96 91 87 87 97 86 87 91 94 90 98 92 96 99 100 95 96 100 100 85 84 83 90 93 90 96 93 95 98 92 91 84 99 90 59 56 57 55 57 59 62 58 66 71 68 63 59 51
100 100 100 100 99 98 97 96 99 93 81 76 80 85 95 99 99 94 98 100 100 93 96 100 100 84 79 95 98 88 98 94 98 98 99 100 99 98 98 79 69 68 64 62 67 61 58 56 59 64 61 59 50 50
100 100 100 100 100 100 99 98 100 99 94 93 99 99 99 91 98 99 99 99 95 92 99 100 95 97 78 85 89 84 82 99 92 97 99 96 97 98 80 76 68 57 60 59 63 68 66 68 69 64 55 49 50 52
100 100 100 100 100 100 100 100 98 79 80 87 86 94 100 100 100 99 95 97 98 100 100 99 85 95 84 87 88 86 85 87 99 87 92 98 92 72 62 59 56 55 57 63 65 74 74 68 69 62 56 53 50 49
100 99 99 100 99 99 87 81 76 68 62 64 97 100 100 100 98 100 98 98 99 98 99 99 94 95 85 95 97 89 96 96 95 83 87 93 92 67 48 47 52 61 59 66 60 57 62 55 53 56 64 60 57 54
94 96 95 98 100 80 74 80 72 55 66 72 84 89 89 88 92 90 97 83 91 92 89 91 93 92 92 82 91 94 93 91 94 84 94 97 72 52 58 59 62 62 57 56 60 61 60 60 61 64 65 64 62 60
87 78 69 75 89 99 89 81 53 66 64 62 75 89 88 95 89 80 85 96 96 90 92 91 95 91 94 85 96 92 94 94 80 96 88 82 63 60 67 68 68 59 57 58 60 58 59 59 54 58 63 57 61 67
90 87 78 75 76 77 93 88 63 63 52 88 84 76 83 95 90 86 82 89 91 91 87 86 93 89 89 92 92 90 91 91 99 100 92 88 67 59 60 70 74 76 74 66 58 46 39 39 41 39 46 48 53 53
91 94 89 81 72 83 84 100 92 62 74 90 80 78 96 89 98 100 97 90 94 86 90 92 93 83 95 97 90 92 96 100 89 85 78 89 72 77 74 68 60 51 50 47 40 42 42 44 46 47 47 47 47 49
90 76 86 84 86 79 94 99 99 98 97 91 82 84 92 92 98 96 97 97 93 93 86 87 91 94 98 94 93 98 94 95 80 89 88 88 78 62 59 56 50 41 42 44 44 47 48 51 52 52 53 56 57 58
81 74 85 91 100 99 98 86 98 98 98 97 98 92 92 94 92 94 87 84 83 85 97 94 93 89 92 99 98 92 93 84 86 89 92 72 68 62 58 52 48 46 50 48 47 49 53 55 58 65 68 63 64 64
76 87 93 99 78 71 81 98 93 94 97 98 96 96 72 59 80 78 76 91 87 94 92 92 90 90 93 95 95 85 88 88 85 75 70 69 66 61 56 60 52 48 50 51 52 53 62 69 74 71 68 66 66 67
66 70 96 85 67 77 91 95 95 95 98 98 97 95 85 75 68 65 81 85 84 85 88 95 93 96 90 86 81 86 92 87 70 65 66 55 48 49 48 48 52 56 55 54 58 62 62 66 69 68 68 69 70 69
67 70 74 75 66 83 94 94 95 85 85 97 97 98 99 99 86 78 84 92 92 96 97 99 92 80 78 72 74 69 64 66 68 68 66 63 51 51 53 55 58 56 60 60 60 61 65 68 67 69 73 75 74 78
77 85 84 72 74 81 96 91 94 91 95 97 97 98 99 97 98 97 97 90 94 99 99 91 85 77 64 58 51 54 60 63 71 70 64 68 59 60 62 61 58 60 62 65 70 72 73 76 77 80 80 88 95 96
98 80 81 75 92 92 95 90 97 96 91 93 97 93 95 98 96 97 97 97 95 91 86 81 76 74 73 69 60 53 53 56 59 65 67 67 80 78 71 58 60 69 75 79 82 83 82 83 81 88 98 95 95 91
81 73 89 94 89 89 92 96 98 94 94 97 92 90 95 98 96 95 98 96 93 87 72 72 71 63 62 59 61 62 61 63 70 69 69 64 58 57 61 65 70 76 84 82 82 87 85 82 92 89 93 89 89 92
70 74 94 99 93 96 95 100 98 99 88 89 97 100 99 99 97 97 100 96 93 90 91 88 77 89 80 80 92 74 58 55 60 65 66 71 82 80 80 82 81 80 80 85 88 92 92 88 85 92 94 96 96 94
78 83 87 100 98 94 99 99 98 98 100 99 100 100 100 99 100 100 100 92 95 96 94 94 93 95 94 92 68 65 74 81 87 96 70 76 86 78 79 80 82 81 80 87 92 94 93 94 94 94 96 95 96 96
94 96 93 94 99 92 95 99 96 97 99 100 100 99 100 100 100 98 95 95 98 98 100 100 98 93 94 89 90 90 87 76 75 84 75 79 77 93 98 98 93 85 86 100 100 97 96 96 96 96 96 94 93 95
100 98 97 95 93 91 95 92 88 96 98 98 99 98 97 97 98 85 92 96 98 93 92 82 81 90 96 85 74 75 71 77 82 79 70 70 71 78 87 98 98 94 97 97 100 100 100 99 98 97 97 97 97 97
90 98 93 98 96 92 94 97 97 95 95 94 92 96 95 88 82 96 100 96 100 99 88 88 90 87 89 82 77 76 72 75 68 66 66 65 69 70 79 84 82 100 98 95 97 98 99 100 100 98 98 99 99 95
96 97 92 100 98 97 92 89 91 94 89 94 95 94 92 96 100 100 97 98 93 87 88 90 88 74 75 78 76 75 74 78 93 100 100 93 86 82 86 88 93 95 95 96 97 100 99 97 97 97 96 98 97 94
97 97 95 98 97 96 93 92 96 95 92 92 89 94 97 99 97 98 97 93 92 100 98 90 85 82 91 93 94 85 72 79 91 100 99 96 94 95 95 98 96 94 94 98 99 97 100 98 94 90 90 91 92 94
98 95 92 98 95 95 96 93 93 91 94 98 100 97 99 100 97 96 92 92 94 91 84 89 84 79 86 95 100 100 97 84 90 91 94 100 99 98 94 91 94 96 97 98 98 98 99 98 96 96 95 95 95 96
95 100 97 87 90 95 98 99 100 100 100 99 98 100 100 98 100 96 93 82 80 87 96 93 92 89 80 82 82 85 97 97 96 96 98 95 96 96 98 98 97 97 97 96 96 96 97 97 96 96 96 96 96 96
99 100 100 100 99 98 100 95 100 98 100 100 100 100 100 96 97 97 99 95 85 90 95 88 81 78 77 77 83 85 94 95 94 99 99 100 100 97 96 97 98 96 96 96 96 97 97 96 95 95 95 95 96 96

GFSWCAN_925_rhum_180.txt.gz
RH
94 95 97 97 89 92 96 90 99 81 74 76 79 83 92 96 91 88 76 70 65 83 74 57 53 58 62 62 65 66 61 68 77 72 74 74 74 62 59 59 73 74 86 87 87 87 81 46 45 50 50 54 57 63
100 100 100 100 91 95 99 98 99 89 78 76 78 79 87 95 95 92 80 80 71 85 74 68 66 62 57 51 66 68 60 71 70 78 84 81 76 78 71 67 58 62 60 66 68 68 53 50 45 46 55 59 63 65
98 99 100 100 99 99 100 98 96 95 87 80 78 80 84 92 94 96 83 84 81 91 87 86 79 74 66 60 65 67 74 61 71 68 82 79 71 75 78 79 58 51 54 59 52 49 54 45 56 55 58 66 64 62
100 100 100 100 100 97 93 81 96 98 92 86 80 82 86 90 94 100 88 79 73 88 91 90 76 77 74 72 66 65 64 66 70 73 80 86 83 71 80 74 70 58 58 61 66 59 57 68 64 67 64 64 64 62
100 100 95 98 97 100 100 63 100 99 96 93 84 86 88 86 98 100 95 85 70 78 95 97 81 83 79 81 75 64 65 76 84 86 90 92 89 89 92 90 90 69 63 70 73 58 57 58 68 65 68 67 68 66
100 100 100 96 100 100 92 95 100 100 99 87 87 90 89 96 97 100 100 98 87 78 92 100 90 85 89 88 87 87 86 91 92 93 94 89 81 75 96 94 70 65 59 60 66 55 61 59 68 66 68 73 71 72
100 100 100 99 97 97 99 100 100 100 93 91 93 90 87 78 93 97 94 97 91 82 94 100 99 93 91 91 96 96 96 98 94 96 98 93 91 88 99 97 65 62 58 58 57 58 64 62 70 67 70 68 64 63
100 100 100 100 100 100 100 100 100 100 100 94 87 84 86 97 99 97 99 100 100 93 94 99 100 97 86 99 99 97 99 98 98 99 99 98 98 96 99 84 74 70 62 60 62 66 62 56 60 67 66 66 60 56
100 100 100 100 100 100 100 100 99 98 89 88 96 99 99 95 99 100 100 100 99 90 99 100 94 97 82 98 99 99 95 99 98 99 99 95 99 97 84 80 66 61 59 58 60 70 69 68 68 67 68 57 54 54
100 100 100 100 100 100 99 100 100 100 100 100 97 97 99 100 99 97 93 99 98 100 100 99 87 98 86 90 98 92 95 96 98 92 94 98 92 75 60 60 61 54 54 58 66 72 72 74 75 69 63 57 55 54
100 100 100 100 99 100 100 99 99 100 98 98 100 100 100 100 98 100 99 99 99 98 100 99 89 96 90 97 97 98 96 94 94 86 90 94 94 70 52 52 57 64 65 65 66 58 61 61 60 56 60 61 61 59
94 97 100 95 98 98 91 93 92 96 100 100 99 100 100 99 98 95 97 96 96 94 97 97 98 98 99 100 97 97 93 89 94 86 91 97 71 58 65 62 67 69 65 66 63 65 63 62 61 62 63 59 53 49
88 90 91 95 98 99 95 86 99 99 88 88 94 96 96 96 96 94 95 96 97 96 96 98 97 97 98 91 96 91 93 92 80 96 89 83 65 62 61 67 70 71 66 62 60 55 54 52 44 45 49 46 47 53
90 92 83 80 86 92 98 83 70 54 51 96 94 95 96 95 94 84 80 88 92 91 86 86 94 90 88 93 90 89 92 88 100 100 93 89 71 62 59 68 69 56 48 44 42 42 44 46 46 45 48 47 49 54
93 88 82 71 75 84 97 98 74 59 79 92 86 92 94 92 97 97 96 94 95 80 86 90 90 84 95 96 90 92 95 100 87 86 81 90 72 71 69 62 62 50 46 46 44 47 48 47 49 52 50 52 54 58
90 68 97 98 97 100 100 97 96 98 93 90 89 87 91 91 94 95 94 93 92 88 83 84 92 94 100 94 96 96 90 92 80 91 90 88 78 65 58 55 54 51 47 47 49 49 49 50 51 50 55 61 64 66
75 74 95 99 99 95 89 79 81 96 98 96 99 89 90 92 91 91 84 88 86 80 95 91 83 86 92 96 96 91 90 83 84 85 91 77 64 61 62 61 56 52 52 51 51 51 52 51 55 66 74 68 70 72
72 90 93 92 72 59 79 92 90 92 96 97 96 94 70 70 83 79 78 91 80 92 89 85 90 91 94 94 95 84 88 93 85 70 65 64 61 60 59 63 54 53 55 54 56 57 59 63 68 69 70 72 73 73
66 94 97 75 64 77 93 93 94 97 98 97 94 90 86 77 74 75 91 91 88 84 86 93 87 94 88 84 79 88 94 86 57 56 64 60 57 57 52 51 54 60 61 61 61 65 65 64 68 72 74 77 80 81
70 90 88 62 55 75 93 94 86 89 97 97 96 97 98 96 94 88 93 92 91 96 93 95 84 69 69 69 73 66 58 62 69 72 70 66 54 55 58 62 66 65 69 66 60 62 68 74 73 76 80 80 78 87
80 96 73 61 71 81 90 85 93 98 96 97 97 98 100 96 98 98 98 94 93 100 99 90 80 72 70 62 57 57 62 69 75 74 71 74 64 69 70 63 63 62 66 72 80 80 80 83 86 85 86 95 94 97
93 78 68 71 89 87 91 97 99 96 91 98 94 94 96 100 99 99 98 97 98 93 89 76 74 74 77 74 66 62 60 61 66 68 70 71 81 87 77 65 71 77 80 83 85 91 91 90 88 97 94 93 89 87
74 65 86 86 85 87 98 92 100 91 92 98 91 90 93 97 97 95 98 97 94 83 78 82 80 66 65 64 65 67 67 67 70 69 65 65 65 68 74 77 78 85 92 89 84 90 94 88 88 88 88 91 93 95
76 73 95 99 96 98 95 100 98 94 84 89 97 100 100 95 97 98 100 97 90 90 94 92 85 93 84 83 95 75 70 68 72 72 72 77 84 84 82 74 75 77 79 83 89 94 93 94 91 95 97 98 97 96
74 85 91 100 98 94 100 100 100 99 100 100 100 100 99 98 100 100 100 94 96 95 93 93 95 96 95 93 79 84 88 78 83 92 68 82 86 76 79 82 81 78 80 92 95 96 97 97 99 100 100 98 97 97
98 95 89 99 99 90 98 100 100 96 99 100 100 98 100 100 100 99 93 96 99 99 100 100 99 96 98 97 94 93 87 78 79 88 71 83 80 98 100 100 98 90 88 94 100 99 98 98 99 99 99 96 94 96
100 100 96 93 94 91 97 92 92 96 100 96 96 97 99 99 98 85 94 97 98 100 94 90 84 86 92 85 80 78 74 76 77 72 69 72 79 81 88 97 100 91 90 97 100 100 100 100 99 100 99 98 97 97
88 98 95 98 97 98 95 99 99 100 95 94 91 96 96 94 94 94 96 98 98 98 95 94 89 89 87 86 82 78 75 72 66 68 72 70 70 73 82 80 82 85 96 93 98 98 99 98 100 99 98 100 99 93
96 98 92 100 100 100 97 92 93 96 95 96 95 96 95 93 99 97 97 98 96 94 90 81 76 72 69 69 74 75 79 83 91 100 99 95 91 78 84 85 84 84 91 95 91 98 97 97 98 98 96 97 97 96
98 97 96 99 96 96 95 97 96 96 93 94 88 94 93 96 96 98 98 95 96 97 89 88 82 79 90 91 93 79 74 89 98 100 100 100 98 95 93 89 86 91 93 96 95 94 96 96 93 94 94 94 94 94
97 97 92 96 98 97 97 95 94 91 94 97 99 96 99 99 97 94 90 93 98 94 90 82 73 77 88 94 100 100 96 83 87 92 98 100 98 94 89 87 93 92 96 98 99 99 97 96 96 96 95 95 95 96
96 100 98 85 91 94 96 98 100 98 100 98 100 100 98 98 100 96 96 87 80 90 94 86 89 91 85 87 85 90 99 97 98 97 96 95 95 94 95 99 97 99 98 97 96 96 96 97 96 96 96 96 96 96
100 100 100 100 100 99 99 95 100 99 100 100 100 99 97 95 97 96 96 94 85 90 93 85 80 75 76 76 85 94 96 95 94 98 99 100 100 97 95 96 97 96 96 96 96 96 96 96 95 96 96 95 96 96

GFSWCAN_925_rhum_186.txt.gz
RH
71 68 70 73 80 90 90 90 93 92 86 86 88 87 87 89 89 99 96 88 92 88 65 58 51 59 62 60 62 68 62 67 74 65 63 64 65 61 56 58 76 74 86 88 86 80 63 50 47 53 51 55 59 60
74 77 74 78 83 86 95 100 97 96 98 89 89 95 88 90 87 90 98 97 89 81 75 67 55 49 45 46 62 72 56 69 62 69 75 79 76 81 68 63 66 60 53 60 63 63 54 53 48 50 53 55 58 60
78 77 76 84 86 87 91 94 98 98 98 95 94 94 96 93 91 96 100 99 99 90 83 88 87 65 62 55 48 63 73 62 66 62 78 75 67 74 79 79 62 58 56 60 59 55 55 54 57 53 53 50 58 61
81 80 78 84 89 88 93 93 95 95 97 98 95 96 96 95 96 95 100 100 92 88 91 81 83 78 70 63 62 58 58 65 71 74 81 83 79 67 76 66 62 55 58 59 61 59 58 59 59 57 60 64 65 67
82 80 85 90 93 98 97 99 98 100 97 97 99 97 92 93 95 96 98 100 89 77 86 97 87 82 79 79 74 66 65 76 85 89 92 87 89 86 95 89 88 69 61 69 87 60 56 57 54 57 61 64 68 70
80 82 89 90 91 100 99 100 100 98 98 100 100 100 97 94 98 98 96 98 96 88 94 99 89 91 95 87 79 81 85 91 92 96 98 93 80 92 99 99 77 66 60 55 61 58 57 53 56 61 68 67 66 70
80 83 89 84 91 97 100 100 99 100 100 100 100 100 100 98 95 92 81 91 99 94 96 99 100 96 94 92 97 97 94 99 94 98 99 98 95 91 99 97 67 64 64 65 58 60 64 64 68 66 67 67 69 72
82 87 87 84 86 99 100 100 100 100 96 96 98 100 100 97 95 95 93 85 93 87 96 99 99 99 94 99 99 97 99 98 98 99 98 99 99 99 99 86 74 63 63 65 65 66 67 64 69 76 75 73 71 73
83 88 82 80 85 99 100 100 100 100 97 99 100 100 99 94 92 82 94 97 85 89 100 99 96 98 99 99 99 100 98 99 100 99 99 98 99 98 95 86 70 66 63 61 54 62 72 73 73 70 70 71 68 61
84 88 82 83 83 99 99 100 100 100 98 98 94 89 99 100 80 99 98 99 99 100 100 98 96 98 89 95 99 94 99 98 98 98 100 99 98 95 79 62 57 55 58 56 49 67 71 76 72 74 71 64 60 62
85 87 88 81 84 94 95 100 99 100 88 93 98 98 100 100 99 99 99 99 99 98 99 98 92 96 98 92 95 97 98 98 96 96 95 96 96 72 62 89 84 73 72 72 67 68 63 61 64 66 63 57 54 51
87 93 83 84 88 88 94 100 100 98 99 99 100 100 100 99 98 96 97 98 98 96 98 96 98 97 99 99 97 98 96 97 95 95 96 95 75 65 81 88 76 70 68 71 65 66 62 61 58 54 52 48 47 47
90 93 83 89 92 95 99 99 100 100 100 100 98 96 97 97 95 95 96 96 96 96 98 97 98 97 99 96 97 97 96 96 92 94 91 77 70 62 83 82 80 67 56 51 50 45 42 43 40 40 41 41 46 50
96 90 83 89 87 92 94 94 93 85 96 97 97 95 96 95 96 95 97 98 98 94 91 89 96 95 98 96 96 94 96 92 95 95 83 81 80 81 79 76 66 52 44 43 42 43 44 46 45 42 44 47 53 56
93 89 81 81 90 90 83 72 64 68 94 96 95 96 96 96 96 97 97 92 97 87 83 91 96 90 97 95 95 95 96 95 80 80 76 82 85 78 75 72 57 51 47 45 45 48 50 53 56 55 51 55 58 58
90 68 80 88 86 75 50 58 67 74 93 93 94 96 96 95 96 95 94 96 98 97 95 90 96 96 96 95 95 95 92 86 82 89 88 80 74 67 60 56 54 52 52 52 52 55 56 58 61 62 62 57 60 67
69 81 92 86 65 36 48 64 67 91 96 93 96 95 96 96 96 96 96 96 95 90 94 92 93 95 95 94 91 84 79 84 89 83 78 69 66 60 60 58 59 59 59 60 60 61 63 65 66 65 73 68 73 77
80 85 83 76 42 47 60 76 88 90 95 96 96 95 94 94 96 95 96 88 84 88 88 95 91 92 89 82 92 86 91 89 77 69 77 70 64 63 60 63 60 59 62 66 69 70 69 67 75 77 77 80 86 86
96 90 65 54 52 71 95 88 87 95 96 96 96 95 93 94 96 96 82 76 78 78 84 88 76 87 80 81 78 88 90 79 65 65 63 63 60 62 60 61 65 69 70 70 68 70 75 76 79 80 83 86 92 88
75 62 53 53 45 73 91 95 74 93 98 96 95 94 97 95 96 95 88 85 81 87 86 86 81 66 61 67 64 66 65 62 63 70 72 72 67 65 69 71 70 67 68 72 75 78 84 81 80 83 87 89 92 90
60 61 56 52 71 76 93 98 93 99 98 98 98 96 96 95 96 97 97 88 88 98 94 87 81 81 75 70 64 63 67 66 68 64 68 76 78 75 72 67 70 76 81 82 85 85 85 89 85 89 98 96 90 92
72 64 58 57 82 87 95 99 99 93 96 98 96 94 98 97 98 97 95 94 99 97 94 93 95 80 75 78 81 76 72 71 72 76 82 76 78 89 82 81 81 86 83 85 87 92 89 84 90 92 90 93 92 86
64 58 68 67 78 90 98 89 99 97 96 98 95 97 98 99 97 92 96 97 95 84 85 90 93 86 86 82 79 78 74 73 80 78 76 76 78 80 84 84 78 79 85 80 85 89 83 89 90 95 94 89 92 93
64 85 99 100 99 100 96 100 97 93 97 99 99 100 97 99 94 96 98 96 89 88 89 91 98 97 88 87 92 92 85 76 78 80 79 78 87 89 75 76 77 79 82 86 92 82 84 90 94 91 93 96 95 98
76 92 92 100 100 91 100 100 100 96 100 100 100 100 100 98 100 100 100 96 96 94 92 90 88 88 94 94 94 96 85 82 88 94 90 89 83 73 73 79 78 78 87 94 85 96 97 94 94 95 96 96 99 98
100 97 89 100 100 88 99 97 100 100 100 100 100 100 100 100 100 100 97 99 100 98 96 97 98 90 92 95 92 94 92 85 81 76 90 94 81 88 98 100 99 85 98 86 98 100 100 99 99 98 98 93 97 100
100 100 98 95 96 91 97 94 90 95 98 97 100 100 100 100 100 97 95 95 96 96 98 98 96 99 100 96 89 79 72 80 77 75 70 74 82 84 84 96 96 87 93 97 99 100 100 100 100 100 100 97 98 98
95 98 94 99 98 98 99 100 98 96 98 95 89 98 100 98 97 95 94 96 96 96 80 78 74 72 71 75 81 72 69 70 67 71 76 77 78 74 92 89 83 88 93 90 97 98 99 100 100 98 99 100 98 96
99 97 93 100 100 100 100 97 97 96 94 96 97 96 94 92 95 96 97 96 97 94 85 77 72 72 70 75 78 82 82 88 80 98 99 98 91 78 82 84 84 83 90 92 90 97 100 98 97 98 98 99 96 95
100 98 98 100 97 97 98 97 97 95 93 94 92 94 92 96 97 97 97 96 95 93 83 83 83 82 94 95 94 78 85 95 95 96 100 100 95 92 91 89 88 93 93 96 95 91 90 96 93 94 95 94 94 95
97 97 96 98 99 98 97 95 96 95 95 96 96 95 97 98 97 97 96 96 96 90 79 79 72 80 87 93 100 100 95 91 95 100 100 100 98 96 91 90 96 94 97 96 96 96 96 96 96 96 95 95 96 96
95 100 99 87 94 96 94 100 98 97 97 96 96 99 98 96 100 97 96 95 94 93 93 85 89 90 82 85 84 90 100 98 96 96 96 96 94 91 94 96 95 97 97 97 97 96 96 96 96 95 96 96 96 97
100 99 100 100 100 100 99 97 100 99 98 99 99 99 98 96 98 96 96 95 93 97 97 87 80 76 75 74 82 86 86 92 94 99 98 100 100 97 96 96 97 96 96 96 96 97 96 95 96 96 96 96 97 97

GFSWCAN_925_rhum_189.txt.gz
RH
71 70 70 72 72 74 71 73 80 85 88 94 94 93 96 94 90 95 91 92 99 94 82 67 58 58 60 61 64 70 65 70 76 66 62 60 59 58 55 58 76 71 84 87 81 78 65 47 45 50 47 59 59 60
73 73 72 72 73 75 76 74 79 84 89 91 92 99 96 95 95 91 98 93 92 97 90 75 57 46 43 41 56 72 54 70 63 66 72 68 68 78 60 56 64 54 51 60 59 58 54 50 52 50 53 56 56 59
76 75 73 73 76 77 79 82 85 90 87 92 93 92 92 93 96 94 98 92 95 92 90 97 94 70 58 49 40 63 72 60 66 58 74 74 67 74 73 70 60 58 56 56 56 54 56 52 56 52 51 52 59 58
78 76 75 75 78 79 81 86 88 86 89 94 95 92 92 95 94 96 97 92 94 91 98 88 79 75 63 56 56 50 53 63 70 73 78 83 79 68 72 62 60 57 58 60 61 59 60 58 56 59 61 62 64 67
78 75 75 78 80 81 84 89 87 93 92 92 90 96 97 96 91 100 97 94 92 89 92 96 94 80 68 62 67 64 64 76 85 89 89 85 86 85 93 83 82 65 57 60 64 58 57 61 60 59 60 60 67 68
75 75 77 80 82 81 86 84 87 87 93 94 98 96 95 92 92 94 95 94 92 89 96 95 90 99 99 90 82 83 78 88 90 92 95 94 84 86 98 97 76 70 61 62 66 68 70 71 66 65 66 66 68 70
76 77 79 83 83 82 86 87 85 85 95 99 98 100 100 100 100 95 89 71 83 94 94 92 100 99 97 93 98 98 95 98 94 99 99 98 95 89 98 98 74 72 70 72 70 73 86 67 70 70 71 73 73 76
80 78 82 84 84 85 89 84 85 92 99 100 100 100 99 100 100 97 97 74 65 88 82 92 99 99 94 99 99 96 99 99 98 98 99 98 99 99 99 86 78 72 71 69 70 66 68 70 76 80 75 72 75 71
84 80 86 85 85 87 84 85 91 98 100 99 96 94 99 99 96 93 94 90 80 70 84 94 98 98 98 99 98 100 98 100 100 99 98 97 99 98 95 89 76 72 72 66 66 74 73 74 74 74 74 72 68 58
82 79 86 85 84 87 85 86 92 100 92 97 85 100 99 98 82 91 97 95 98 98 99 99 98 98 96 98 99 98 99 97 98 98 98 99 98 96 80 74 70 65 59 58 78 86 81 78 78 76 69 61 61 62
78 84 85 85 89 82 84 85 90 99 91 94 98 98 100 100 96 100 99 98 99 97 99 92 95 96 99 88 96 94 98 98 97 96 93 97 98 95 97 95 87 83 77 67 64 68 62 63 63 67 62 55 48 46
80 86 85 86 90 78 80 87 85 98 99 99 99 100 90 96 96 93 97 98 97 96 97 97 92 96 99 99 96 98 96 98 96 96 95 97 90 92 97 98 97 87 70 71 66 70 65 62 54 51 49 46 45 46
85 86 87 90 82 79 83 82 77 94 99 100 99 91 94 94 87 92 95 95 96 97 98 95 98 97 99 97 97 97 96 96 91 95 91 88 80 94 97 94 91 74 66 61 58 51 47 46 42 39 43 44 46 50
84 87 86 87 82 84 83 80 80 91 99 98 96 94 97 94 94 94 96 96 94 97 85 82 96 96 98 96 96 94 96 91 95 96 94 94 78 95 91 87 80 54 48 49 48 45 46 46 45 43 44 47 54 58
86 87 86 74 86 84 77 76 72 81 96 96 94 96 96 96 97 96 97 97 97 84 80 88 92 86 97 95 95 95 96 95 86 87 86 85 82 91 89 77 53 49 48 52 49 50 53 55 56 57 57 59 61 63
85 80 57 85 87 80 74 47 67 78 96 95 94 95 93 94 94 95 96 96 97 96 89 85 96 95 96 96 95 95 90 93 88 94 77 79 89 84 75 57 54 50 49 51 53 57 60 62 63 65 64 62 68 72
72 71 86 91 82 44 51 61 64 93 97 93 96 96 96 96 96 96 96 95 96 90 96 95 94 96 96 96 95 93 89 93 92 81 68 65 67 61 57 56 58 60 62 61 62 64 69 70 65 66 74 71 72 74
78 66 87 89 68 50 56 72 88 89 95 96 96 95 96 96 94 90 92 90 92 91 91 96 91 94 95 94 97 95 94 79 67 60 60 60 60 64 61 66 62 61 65 68 69 71 67 69 74 78 76 76 80 84
60 83 88 68 62 69 91 86 85 96 96 96 95 94 96 95 92 88 78 75 79 80 85 89 86 95 95 92 90 87 73 61 62 62 67 68 66 66 66 65 68 71 70 70 69 72 75 76 76 76 80 86 95 92
60 56 59 52 49 75 88 93 77 94 96 95 95 95 96 96 94 88 74 79 85 90 91 94 90 81 71 70 68 65 62 57 60 71 76 75 72 71 75 73 73 69 70 74 76 80 81 75 76 80 89 95 93 91
57 55 59 49 68 77 96 97 95 100 98 96 93 95 95 94 91 94 94 84 81 96 96 94 87 78 74 70 64 62 68 62 65 65 72 84 83 80 80 74 70 73 77 79 81 84 85 87 84 91 97 92 92 95
67 62 55 55 82 87 95 98 99 95 94 99 94 93 97 97 96 96 94 89 96 94 93 91 92 83 84 90 86 87 80 82 83 82 80 77 85 91 91 86 77 86 81 83 85 90 89 82 93 96 93 94 91 85
61 57 65 68 73 86 96 86 98 94 96 97 93 91 97 97 96 90 95 96 94 92 91 90 92 88 84 83 82 84 77 77 82 86 84 86 86 86 89 82 76 81 88 92 93 86 80 94 91 97 92 87 88 88
60 84 97 100 99 100 96 100 96 97 94 96 100 100 98 100 92 93 96 95 93 90 88 91 95 87 86 84 90 93 93 80 84 87 85 84 94 84 77 80 82 83 85 94 89 80 84 88 95 89 90 94 93 94
74 90 88 100 100 92 100 99 100 96 100 100 100 100 100 99 100 98 98 96 93 92 92 93 92 92 92 94 92 90 90 84 88 98 96 81 77 76 83 86 84 91 98 86 88 94 92 90 91 92 93 95 98 95
100 97 98 100 100 90 99 98 100 100 100 100 100 100 100 100 100 100 97 96 96 95 94 94 94 92 92 94 89 86 90 88 79 85 99 88 81 89 96 97 95 94 88 92 98 100 98 95 95 95 95 92 96 97
100 100 98 94 96 91 96 92 91 96 100 100 100 99 99 100 100 97 94 94 95 98 94 87 89 94 98 95 86 76 76 78 75 73 76 84 90 88 93 95 96 87 94 93 93 98 100 100 99 97 97 94 95 96
98 99 99 97 97 98 100 98 99 98 97 94 90 99 100 98 98 96 95 96 96 88 82 78 78 80 82 84 83 78 74 76 78 81 81 80 76 86 97 86 85 91 94 96 99 97 98 99 98 96 97 98 98 97
100 97 95 100 100 99 98 98 98 96 92 96 97 98 99 93 96 96 96 96 96 94 83 80 76 74 74 80 80 84 90 82 77 95 98 98 91 86 86 86 85 87 93 93 90 97 100 98 98 98 98 99 97 96
100 98 98 100 98 98 96 95 98 95 93 94 90 96 94 95 97 97 97 96 93 91 86 85 89 89 96 94 91 81 92 96 95 98 100 100 97 93 92 90 89 93 94 96 95 92 92 95 93 94 95 95 96 96
98 98 98 99 99 97 97 95 96 94 94 96 95 95 95 98 97 97 96 97 96 94 80 84 83 89 95 94 100 99 93 90 94 97 99 98 96 96 92 93 96 95 97 96 96 96 96 96 96 97 96 95 97 96
96 100 98 92 97 97 94 98 98 98 97 96 97 97 97 95 100 96 96 96 96 95 96 91 92 91 82 82 83 91 100 93 94 96 96 96 95 90 94 96 95 97 96 96 96 96 97 96 96 96 95 96 96 98
100 98 100 100 100 100 98 97 100 99 97 97 97 97 98 96 100 97 97 96 96 97 97 88 79 77 75 75 82 85 86 93 96 99 99 100 100 98 96 97 97 96 96 96 96 96 96 96 96 96 95 97 98 98

GFSWCAN_925_rhum_192.txt.gz
RH
77 77 76 74 74 72 70 70 72 70 67 71 84 87 87 89 88 96 91 90 97 92 89 80 81 78 59 45 44 50 59 64 65 59 50 46 43 40 43 47 62 60 63 62 57 60 59 39 43 41 42 52 46 46
85 83 81 76 73 72 71 70 74 76 77 78 85 92 91 86 90 91 98 89 92 98 85 78 80 77 95 74 42 52 45 59 52 56 57 47 50 52 40 41 58 51 41 44 42 42 40 39 41 45 45 47 51 51
86 83 82 75 74 72 72 72 76 78 79 84 87 84 81 84 93 92 96 93 94 96 84 82 75 58 58 59 76 67 52 46 55 49 57 52 54 48 53 49 49 50 46 43 46 47 48 43 51 46 46 49 52 52
86 84 78 74 72 71 71 75 80 80 80 85 85 81 83 85 87 91 95 90 97 97 97 68 50 50 57 59 80 58 50 56 48 53 57 66 59 50 51 46 49 46 47 46 50 57 54 50 49 49 54 55 59 60
85 81 74 71 71 72 74 78 82 82 83 85 87 85 87 91 96 96 96 96 96 96 96 75 57 60 59 71 83 70 61 60 63 70 75 71 67 64 72 61 56 49 48 49 49 44 44 48 51 52 54 58 59 58
82 80 75 76 76 76 76 80 83 83 83 89 86 86 89 93 99 99 96 97 94 96 96 96 60 59 51 55 94 84 72 70 62 64 67 72 67 65 85 70 50 47 49 50 55 54 54 57 60 58 62 66 62 59
80 80 79 79 78 78 78 82 82 83 89 87 87 94 96 96 99 96 94 75 72 93 95 97 93 58 56 77 84 89 80 76 79 69 77 69 78 74 87 69 61 59 61 63 67 70 80 73 76 62 61 62 68 70
77 76 76 78 78 80 81 81 84 88 87 86 89 92 89 90 94 96 96 98 91 93 94 96 88 89 80 82 95 91 97 93 94 82 89 83 93 92 97 68 62 64 70 76 71 63 69 63 65 69 72 69 65 58
87 86 84 80 81 81 83 85 86 91 85 84 87 75 89 90 95 85 87 95 100 96 98 97 84 81 94 78 91 99 97 99 99 97 97 82 98 96 79 73 70 69 70 72 68 67 69 70 72 71 68 64 56 50
89 88 86 82 82 82 84 83 88 81 79 81 80 97 98 98 100 100 100 98 99 100 100 98 66 69 89 97 98 98 100 98 98 99 97 99 96 81 78 64 62 62 67 68 74 77 70 71 68 64 59 50 48 48
86 84 83 81 82 83 85 88 82 77 79 84 99 98 92 84 100 100 99 98 99 98 99 80 70 67 95 86 90 99 98 99 97 96 96 98 95 86 72 67 64 62 57 55 52 60 58 61 61 57 52 46 42 41
84 81 80 83 83 84 86 81 76 83 87 89 99 99 99 98 97 97 96 98 92 90 95 84 69 48 97 99 97 97 95 98 95 94 95 94 75 81 76 76 67 55 55 58 59 58 58 54 52 45 42 41 41 45
84 83 84 82 83 83 82 78 80 82 84 97 99 98 92 88 94 92 93 94 95 94 96 89 96 92 95 96 98 97 96 95 85 93 84 72 86 89 90 84 83 70 62 59 57 55 51 49 47 41 41 43 48 51
85 81 83 84 85 77 83 83 80 87 99 97 96 94 94 90 89 88 90 89 81 92 90 83 89 92 96 94 95 92 94 89 92 96 90 80 90 94 96 89 76 62 52 48 46 44 44 44 43 44 44 49 54 56
87 84 82 75 69 87 85 80 83 92 98 95 96 94 93 92 94 94 92 92 92 97 95 93 86 83 96 94 92 93 94 92 77 75 74 87 93 94 95 77 54 46 43 44 45 48 50 49 50 54 58 62 62 66
86 84 57 59 86 87 82 56 67 90 96 96 90 92 82 88 89 90 93 94 96 96 97 97 96 94 94 93 91 91 86 85 80 84 83 91 94 93 71 47 43 42 43 46 52 58 57 58 58 63 68 68 71 73
81 69 60 72 89 81 53 64 69 94 96 93 94 93 95 95 96 95 94 95 95 94 95 96 95 94 94 94 93 87 79 86 86 80 82 82 85 68 46 45 46 48 50 56 61 66 70 71 66 67 66 76 78 79
80 66 73 91 89 52 59 69 88 92 94 95 95 94 92 95 94 92 94 94 93 96 95 95 95 93 94 93 92 91 87 75 67 73 75 68 57 48 46 52 57 59 62 67 73 75 70 71 71 71 79 83 78 81
83 86 93 79 68 72 88 84 91 95 95 95 94 93 89 84 76 72 76 89 94 94 93 95 93 95 94 93 89 81 73 70 65 62 60 53 53 57 65 71 74 76 78 75 68 71 75 76 74 75 78 82 82 84
61 62 60 51 53 71 83 91 80 94 94 94 93 92 90 85 74 67 75 69 73 89 91 94 94 93 93 91 80 75 61 52 54 63 69 68 71 74 75 72 70 74 77 82 81 82 76 75 78 80 86 91 85 81
59 58 58 48 65 76 94 97 92 97 93 93 94 91 92 86 78 82 85 67 76 95 94 93 91 79 74 74 65 60 64 49 52 54 65 76 77 76 78 78 72 75 71 69 70 80 78 77 83 89 94 93 90 94
68 63 55 51 76 81 93 96 97 90 88 92 88 91 93 95 96 94 92 87 94 92 91 89 85 78 80 83 80 82 78 76 72 73 75 73 71 79 83 84 76 82 82 84 82 83 83 84 91 97 97 95 96 93
63 55 60 64 68 78 86 83 87 94 83 88 88 88 94 94 95 85 96 94 92 90 91 87 79 79 77 78 78 81 84 74 77 80 82 88 92 91 87 81 76 85 88 97 92 86 86 93 88 98 98 93 95 95
55 82 96 98 92 100 91 92 90 90 88 92 93 89 92 94 92 91 93 92 91 91 91 93 91 76 73 81 85 88 91 86 88 92 88 80 79 84 85 88 90 88 90 96 89 84 85 90 96 91 94 98 97 98
68 81 89 100 96 87 97 92 95 92 100 100 96 95 95 94 93 94 92 92 92 92 92 93 92 87 90 89 80 85 94 89 88 88 90 75 81 87 93 93 99 98 92 85 91 95 94 89 90 92 95 98 99 97
100 97 98 100 100 87 98 98 100 100 100 100 100 95 95 90 89 95 92 93 93 92 93 93 92 88 84 86 80 81 91 78 82 91 99 84 84 86 90 87 89 98 86 93 98 99 98 95 96 95 96 93 96 98
100 100 96 91 94 90 94 91 89 93 100 100 100 97 91 98 97 91 90 91 91 96 98 97 94 88 86 87 88 84 82 82 80 83 88 90 91 94 89 92 94 87 93 94 96 100 100 100 100 98 97 93 95 97
98 98 100 96 96 94 98 95 98 97 96 93 88 99 99 95 94 91 91 97 96 96 84 84 83 87 86 85 88 81 75 81 84 82 78 87 91 96 86 87 90 99 100 98 97 96 98 98 98 97 98 97 96 96
99 95 95 99 99 97 99 96 94 92 89 92 94 94 95 88 94 94 98 96 96 93 83 86 83 78 79 80 90 93 85 77 76 92 93 89 88 88 87 88 88 94 96 95 96 100 99 97 98 97 97 97 97 96
100 96 97 100 98 99 96 94 94 94 90 92 86 92 88 91 99 96 96 96 94 93 89 89 91 88 96 91 91 88 95 95 97 98 100 96 95 91 91 90 94 95 97 98 96 92 92 96 93 91 93 95 96 96
96 97 98 97 99 95 95 94 96 93 93 95 93 93 94 96 98 96 96 96 96 96 92 89 82 86 91 91 98 99 92 93 96 98 99 100 99 95 90 94 96 98 99 98 97 97 96 96 96 96 96 95 96 96
96 100 98 96 99 95 94 95 96 96 96 95 96 95 95 94 95 96 96 96 96 95 96 94 94 93 87 87 88 91 98 94 97 98 99 99 96 89 94 95 97 98 97 97 97 97 97 96 95 95 96 96 97 96
99 100 100 100 100 97 96 95 97 98 96 96 95 95 95 94 97 96 97 96 96 96 97 92 83 80 79 79 84 86 89 97 96 99 99 100 100 97 96 98 99 96 97 97 96 96 95 95 96 96 96 96 95 96

GFSWCAN_925_rhum_195.txt.gz
RH
80 83 82 79 80 81 76 74 72 72 70 72 76 77 76 80 91 93 89 87 91 89 74 60 55 77 94 95 99 64 58 53 55 56 44 39 33 28 28 30 57 59 60 58 47 53 58 32 42 38 34 45 38 37
84 83 83 84 82 82 75 74 72 71 72 72 76 80 78 82 88 84 90 82 84 95 92 86 74 68 63 62 89 95 92 80 44 51 41 33 34 30 29 32 42 46 34 41 39 40 36 34 36 38 36 41 44 42
85 85 84 83 79 79 75 72 71 70 71 73 76 78 77 80 84 83 88 90 95 97 92 89 80 66 64 62 67 96 85 69 54 46 54 43 44 30 32 30 35 41 37 38 43 40 40 34 41 40 39 40 44 43
86 85 85 82 80 74 73 73 73 72 72 73 76 79 80 82 85 87 88 88 91 97 98 72 50 47 51 51 56 68 74 71 74 80 85 67 58 33 32 33 33 32 40 37 44 49 48 40 42 42 44 44 46 46
84 82 80 79 77 74 74 75 76 76 78 77 81 84 84 84 89 89 93 95 93 94 96 76 56 52 48 42 44 45 51 71 81 94 94 86 53 47 50 52 46 40 37 43 38 39 36 41 43 45 50 51 50 54
82 81 79 77 76 74 73 74 76 77 81 82 84 88 85 91 90 93 96 87 96 93 96 96 69 60 58 54 59 60 53 72 93 97 96 83 52 52 63 56 33 33 34 35 41 37 41 40 41 44 48 51 49 52
81 80 80 79 80 80 79 77 77 80 81 84 84 86 90 88 92 93 92 66 72 92 96 97 94 61 58 49 60 58 50 62 82 90 96 95 68 67 68 70 32 33 38 51 51 55 62 56 59 49 56 57 57 57
85 86 86 86 86 84 82 81 82 82 83 86 87 88 85 84 85 86 77 83 89 89 98 98 89 68 49 66 74 59 68 72 84 81 92 94 81 89 97 54 38 44 50 58 56 59 56 56 61 63 60 62 64 61
86 88 90 89 88 86 83 82 81 83 85 87 85 83 80 66 84 86 97 88 88 97 97 97 86 82 53 59 63 69 68 83 68 87 91 95 93 96 72 51 44 55 63 66 63 64 66 68 67 68 65 61 57 52
86 88 90 88 85 84 83 82 85 85 86 84 79 80 92 95 94 78 64 100 99 99 100 94 63 71 59 66 75 74 95 82 93 87 84 96 92 67 49 44 44 56 58 65 76 79 74 74 72 69 64 54 48 46
85 83 82 82 82 84 84 87 85 84 78 74 96 92 57 63 93 99 99 99 99 96 99 92 85 81 57 67 74 76 79 84 83 69 98 98 94 63 61 60 55 56 61 60 59 64 62 62 64 59 50 45 42 35
81 83 84 86 86 86 83 84 81 79 83 85 84 85 94 100 98 97 96 98 96 93 98 84 85 66 85 81 80 99 92 91 82 94 99 88 55 65 71 65 63 62 61 57 57 58 56 55 50 47 41 37 35 39
82 80 81 85 86 84 84 79 78 82 83 82 99 99 96 89 94 92 93 93 91 90 97 88 82 69 100 96 97 96 96 89 95 96 95 61 74 75 73 68 65 56 58 60 61 57 53 47 42 38 38 37 40 44
80 80 82 82 82 86 75 81 83 82 91 99 95 91 93 92 90 85 86 83 72 85 83 98 98 98 99 98 91 95 84 91 90 84 93 72 86 81 71 62 63 62 60 59 55 50 47 43 41 41 43 46 48 51
80 80 82 76 76 76 84 86 82 95 98 96 95 92 92 89 87 89 89 89 84 87 96 99 96 94 95 95 92 91 95 93 85 73 66 89 92 88 86 77 70 65 53 46 42 42 44 42 42 46 50 53 55 58
81 82 80 67 80 87 89 68 77 97 98 96 94 91 82 91 85 87 88 90 85 91 97 97 95 96 94 92 93 92 88 91 91 82 86 94 95 94 94 91 68 48 42 46 50 49 48 49 51 57 61 62 63 62
83 84 71 78 93 91 59 68 86 95 95 94 94 92 92 93 94 93 92 87 93 95 95 95 94 94 92 93 94 89 88 85 84 95 94 91 93 94 73 49 45 47 50 53 56 58 60 61 60 59 63 67 66 70
88 75 79 97 95 56 63 79 93 95 94 93 93 87 82 92 91 89 89 93 94 96 94 94 92 92 89 90 88 84 89 95 96 94 94 93 62 45 45 49 52 55 58 63 70 71 69 65 61 64 72 76 76 77
78 87 93 88 57 70 84 93 97 94 94 93 90 81 79 80 88 93 92 93 95 94 93 92 89 93 92 93 93 94 95 91 92 93 85 56 51 65 71 71 72 73 72 65 58 61 64 61 63 65 69 71 69 73
84 71 70 56 51 78 81 93 90 93 93 92 90 86 89 91 92 89 80 77 84 90 89 90 91 93 94 95 94 94 95 93 87 87 78 67 65 68 67 65 65 68 72 76 75 71 71 68 70 73 78 80 73 71
65 66 61 47 61 82 87 92 89 90 90 93 92 88 90 90 91 91 90 70 78 95 94 93 93 94 94 92 92 89 62 52 52 65 68 72 65 68 71 72 69 65 63 64 67 68 65 68 74 83 90 80 81 84
74 67 56 51 72 79 86 91 92 86 86 86 85 89 92 92 94 93 89 87 94 92 93 90 83 78 78 80 75 71 68 67 66 64 61 60 65 73 76 75 76 84 83 79 75 73 73 80 84 87 87 87 88 86
66 55 57 64 73 72 81 87 82 86 78 81 80 86 90 92 91 79 93 93 92 92 93 89 72 75 73 73 75 78 76 71 71 72 75 77 79 80 79 79 85 86 88 88 82 80 85 88 88 89 89 88 88 88
53 77 85 86 85 84 81 88 82 83 82 85 85 89 91 93 88 84 90 90 91 91 90 92 79 73 71 77 79 82 86 76 75 79 75 72 77 79 79 80 86 93 91 90 88 87 87 88 92 90 93 94 93 93
72 84 87 89 87 83 87 87 89 85 91 94 86 90 91 89 87 89 88 90 90 91 91 90 90 88 88 79 70 74 86 89 80 80 88 79 79 81 88 91 92 94 92 92 88 88 91 94 95 95 96 95 96 95
93 97 94 97 91 86 91 92 96 98 93 94 96 90 86 79 85 92 88 90 90 91 92 92 89 78 75 76 74 77 86 86 82 78 92 96 91 86 85 84 83 89 94 99 100 98 96 98 98 96 97 95 94 97
100 100 90 79 85 82 84 82 81 83 96 98 93 90 82 92 92 88 87 89 89 94 98 98 93 84 84 86 87 92 93 89 90 95 96 95 94 88 89 94 94 92 94 97 95 99 100 100 100 99 99 95 97 98
94 91 100 94 88 87 92 89 91 94 89 85 80 98 95 93 91 89 90 97 97 97 98 93 87 88 90 95 95 90 86 86 80 80 86 91 92 86 85 89 91 100 100 98 100 100 100 100 100 96 98 98 97 96
93 87 87 98 95 90 92 92 90 87 84 86 87 89 90 83 89 89 95 100 96 92 90 90 84 80 80 85 91 88 84 83 81 88 88 86 84 93 89 92 95 98 97 94 93 100 100 98 98 98 98 97 96 95
97 90 91 97 94 95 92 90 90 89 82 82 72 79 79 86 97 100 100 100 98 99 96 91 88 87 93 92 93 91 92 92 97 99 98 95 96 93 93 92 95 96 97 95 94 91 93 96 96 94 95 95 96 96
89 92 93 90 94 92 91 90 92 89 87 90 85 84 87 89 96 100 100 96 96 97 99 96 90 90 93 93 97 96 91 91 95 98 100 100 98 94 91 96 96 97 96 95 95 95 96 96 96 96 96 96 97 95
89 97 93 96 96 91 90 92 93 92 92 90 92 89 90 87 91 90 97 98 100 98 98 100 100 96 88 86 87 88 92 94 95 96 97 96 92 86 92 94 94 96 95 96 96 96 97 97 97 98 96 95 94 95
94 94 96 96 96 94 93 91 93 94 92 92 92 91 91 88 93 91 95 95 97 100 100 92 85 82 79 80 83 84 88 95 96 99 99 100 100 97 95 95 96 96 96 96 96 96 96 96 95 94 95 95 95 96

GFSWCAN_925_rhum_198.txt.gz
RH
83 82 82 81 82 83 83 79 81 73 76 74 72 72 71 75 79 85 86 87 94 96 84 67 60 68 78 80 87 68 76 69 76 92 72 62 53 38 37 44 79 76 75 78 66 72 68 40 43 42 41 42 41 38
81 82 82 82 81 81 78 76 78 76 74 74 73 73 72 73 77 81 86 86 90 97 93 84 80 77 80 68 71 70 77 75 100 100 84 75 52 43 35 40 50 60 51 60 50 53 40 37 38 36 44 50 46 45
87 84 82 78 79 80 79 78 78 74 74 74 73 75 73 72 75 83 86 89 94 96 84 78 77 66 64 61 55 86 66 64 65 70 100 99 96 59 52 38 38 47 39 49 43 46 44 39 43 42 41 48 48 49
83 82 81 79 80 79 79 78 77 76 76 76 75 75 76 76 77 82 88 88 93 96 96 71 48 47 54 57 59 61 61 59 57 66 85 93 90 68 74 54 43 30 47 47 52 53 49 42 46 47 48 51 52 53
84 82 81 80 79 78 77 76 76 76 75 75 76 79 80 79 83 86 89 92 93 94 96 91 63 62 58 58 56 56 60 68 77 86 96 92 70 87 92 81 73 44 49 51 51 47 46 42 47 50 54 57 55 54
80 79 81 80 79 79 80 79 80 83 85 85 84 84 82 84 89 90 95 68 58 94 97 96 59 62 58 51 45 50 58 65 74 80 81 88 66 67 78 91 60 45 39 36 44 42 44 44 46 52 55 59 59 62
83 82 82 80 80 81 79 81 83 86 86 85 84 82 83 88 90 95 87 62 54 71 96 91 88 68 52 51 64 65 53 58 67 70 78 76 73 86 98 92 58 50 38 49 53 56 60 55 63 54 56 60 61 63
81 87 90 88 90 90 87 87 88 86 85 80 80 84 87 88 87 87 74 76 86 90 91 94 76 61 43 63 78 61 71 71 70 71 65 68 62 67 84 56 45 67 51 59 57 60 57 60 56 63 66 66 72 70
93 92 89 89 86 84 83 82 80 79 82 85 88 90 85 69 83 70 77 88 100 99 98 97 91 86 56 57 62 87 72 89 78 85 79 69 72 82 62 47 38 62 60 68 61 65 66 61 72 74 73 69 67 60
90 84 86 82 80 83 86 86 88 88 88 88 81 78 97 68 46 65 57 66 79 84 98 90 66 77 61 66 79 97 97 95 97 92 74 90 84 54 46 42 56 54 50 64 80 84 80 80 79 74 69 60 53 50
87 82 80 81 84 84 85 87 88 87 84 69 90 96 49 59 78 93 97 98 98 98 98 92 77 85 92 97 94 93 97 98 97 81 82 88 73 58 49 45 40 58 59 59 52 66 67 69 74 69 58 51 45 41
82 81 81 81 82 82 83 85 89 82 80 84 91 84 84 97 98 98 96 97 99 98 98 99 99 93 96 98 99 99 97 98 95 90 96 91 53 40 50 46 44 50 57 64 64 70 69 69 62 53 48 40 41 44
80 80 80 80 81 82 85 88 80 78 88 77 91 97 99 92 96 96 95 94 90 86 90 83 91 100 99 100 99 99 98 94 96 99 91 70 90 83 53 56 64 65 65 69 70 66 60 52 45 41 42 42 44 47
84 86 87 85 85 85 87 79 82 87 82 90 96 95 96 95 96 95 93 90 81 82 84 82 95 98 100 98 98 97 96 97 100 95 63 87 94 89 89 77 74 72 67 65 59 52 48 46 45 43 45 49 51 55
86 86 88 84 82 86 83 86 91 83 87 95 97 94 96 88 87 81 85 87 89 92 90 93 93 98 98 97 98 96 99 96 93 90 97 98 90 91 97 81 72 68 61 69 80 67 49 45 48 52 53 55 56 59
81 84 85 74 73 87 90 94 73 92 99 98 97 96 91 88 81 81 85 89 79 95 94 96 96 97 97 97 97 95 94 94 95 98 98 98 95 90 94 90 93 95 93 82 55 49 48 52 63 63 61 60 59 60
82 83 78 77 90 93 80 67 90 98 97 97 97 93 96 94 93 94 86 87 83 96 96 97 96 96 97 97 97 97 97 96 98 98 96 96 96 96 95 95 95 92 73 72 77 79 77 72 72 69 71 67 65 68
83 83 78 94 95 70 74 84 97 97 96 97 98 93 90 92 93 83 85 85 96 97 97 96 96 95 96 97 95 96 97 96 94 93 94 96 96 96 95 93 88 86 86 86 83 77 72 70 71 75 77 72 75 74
89 88 95 90 70 57 94 96 96 96 96 97 93 91 92 89 82 87 94 95 97 96 96 96 94 95 94 96 95 95 96 94 94 95 95 96 94 93 91 87 78 71 68 68 66 68 68 68 70 72 71 69 76 72
84 93 82 66 55 78 90 97 96 96 96 96 96 93 94 95 94 92 87 81 89 94 93 94 95 94 95 95 96 94 95 96 93 92 93 94 92 83 78 74 72 71 71 71 70 68 71 74 78 79 79 74 73 76
78 90 74 53 59 67 93 96 96 96 95 96 96 95 96 95 92 91 88 65 75 95 95 94 94 95 95 94 95 94 95 90 93 88 88 88 78 72 70 67 67 68 71 71 73 75 79 85 86 85 81 82 84 84
91 80 58 52 71 78 93 93 96 90 95 96 95 96 96 95 95 94 88 86 95 94 94 94 93 87 85 90 81 86 84 82 83 85 86 81 82 83 86 86 85 90 89 86 82 85 90 86 87 87 88 88 84 83
73 58 54 60 70 73 72 87 93 91 90 91 96 95 95 95 93 83 95 95 95 93 93 93 91 81 78 76 79 78 76 77 75 73 75 78 81 85 89 92 92 91 91 90 83 85 88 88 89 88 86 88 88 88
52 70 83 88 87 75 89 91 94 94 92 93 95 94 95 95 90 91 96 94 93 92 90 93 84 75 69 74 80 84 90 74 76 84 85 81 85 89 89 90 91 91 89 86 86 87 86 90 91 90 90 91 90 90
69 78 87 90 91 88 93 92 93 91 96 95 95 95 95 95 95 95 95 93 92 92 92 92 91 87 88 79 74 78 87 94 83 89 99 92 87 91 95 95 93 91 87 88 94 93 94 91 92 89 89 94 93 98
96 96 96 99 98 92 99 97 100 100 98 96 98 96 95 91 91 97 94 94 94 94 93 94 92 86 82 85 84 90 97 88 80 93 100 97 95 94 95 96 95 98 97 96 93 94 94 94 95 94 92 93 96 96
97 99 96 86 94 90 95 89 86 95 100 100 99 93 89 95 97 94 94 94 93 96 98 99 97 92 92 96 96 97 90 88 90 97 94 87 85 88 91 96 100 100 100 99 98 97 98 96 94 94 94 93 95 97
99 98 100 99 96 97 97 97 98 99 98 92 95 100 100 99 96 93 94 96 96 92 91 88 88 93 96 98 94 86 82 81 83 90 86 87 87 85 91 96 99 100 95 95 100 99 98 97 96 96 99 99 98 100
99 95 94 99 96 96 96 97 97 96 89 97 98 100 100 93 97 96 96 96 90 85 91 91 84 78 80 88 90 86 83 80 81 93 97 98 93 83 88 91 95 97 98 94 93 100 98 96 98 98 100 99 97 96
100 98 97 98 96 99 98 95 97 96 91 90 81 92 91 96 97 96 95 93 94 99 100 95 94 89 95 90 89 88 91 94 98 100 100 100 100 95 91 93 96 96 100 98 95 92 94 97 91 89 92 94 95 95
98 98 96 96 100 98 97 96 95 94 95 98 95 97 99 99 97 96 96 96 96 98 95 91 90 94 94 92 96 94 90 89 96 99 100 100 99 93 90 96 96 99 100 98 97 97 98 95 95 95 94 94 95 94
97 100 98 99 100 98 96 98 98 97 97 97 99 100 100 98 100 98 96 94 92 93 96 95 96 95 92 88 88 89 97 95 98 97 98 96 93 89 95 94 94 100 99 99 100 99 97 95 95 95 95 95 95 95
100 99 99 100 99 98 98 95 98 98 98 99 99 99 100 98 100 98 97 96 96 98 95 89 86 84 81 82 84 84 88 95 96 99 100 100 100 97 94 96 100 95 98 100 97 95 95 94 94 95 95 95 95 95

GFSWCAN_925_rhum_201.txt.gz
RH
80 78 79 80 78 79 77 77 78 74 75 76 72 72 74 75 73 74 77 80 91 86 76 69 66 81 77 80 94 73 74 62 80 94 98 77 84 63 61 49 80 64 84 87 75 81 77 41 42 41 36 40 38 42
86 86 85 82 81 79 79 78 78 76 75 78 75 72 72 75 78 80 82 76 84 98 89 78 74 72 79 90 96 90 87 82 83 98 86 95 91 84 76 92 46 58 50 70 59 56 40 41 36 36 42 41 42 45
85 84 82 81 80 79 78 77 76 76 75 76 76 76 76 77 75 79 81 77 88 89 80 76 74 65 71 79 74 91 70 65 70 64 85 82 93 80 87 93 75 65 48 51 57 50 48 46 42 41 44 42 46 48
85 83 82 83 81 80 79 78 77 75 74 73 74 76 80 82 80 82 83 81 91 87 97 75 51 52 50 52 59 66 73 61 66 70 80 84 91 66 66 53 65 66 74 83 57 52 47 43 49 44 45 50 54 59
83 81 80 80 80 80 79 78 79 81 80 82 84 88 89 89 89 86 86 90 94 95 87 72 48 48 53 54 51 56 71 80 86 90 95 90 75 88 80 67 72 52 60 81 87 58 44 38 42 49 57 58 62 62
79 80 81 80 80 81 83 85 86 88 89 91 92 90 90 90 89 89 84 57 52 90 98 95 67 74 66 60 56 60 66 75 82 99 95 85 61 68 87 79 50 39 36 33 50 52 53 53 48 55 60 63 62 64
80 82 80 82 89 89 87 88 88 87 86 85 83 82 81 83 85 92 83 55 64 76 98 92 73 62 44 49 61 64 60 64 78 81 81 77 75 78 84 87 54 45 52 58 49 61 73 60 56 60 64 68 68 72
84 80 83 90 92 87 87 83 78 78 80 82 84 84 84 85 86 87 80 84 89 94 98 96 89 74 48 69 82 72 82 79 74 73 68 73 64 69 86 63 51 47 43 40 40 35 54 63 60 66 69 69 74 77
86 83 86 94 84 81 79 81 84 81 81 87 90 88 88 73 86 74 77 72 76 88 94 97 88 82 54 54 52 64 68 94 86 85 76 66 80 93 67 55 46 43 47 45 39 36 59 66 71 76 72 72 75 72
84 86 93 94 84 82 85 84 81 80 86 91 84 82 94 68 61 66 60 83 93 89 97 93 65 77 65 83 98 99 98 95 96 89 83 93 85 58 51 46 41 39 40 39 42 43 76 83 86 79 72 66 64 57
84 92 93 87 82 81 82 80 78 82 82 77 84 96 47 59 82 94 97 98 94 97 98 94 90 92 71 93 88 90 96 97 97 91 90 97 80 60 52 53 46 42 40 41 35 39 53 61 77 72 67 58 53 49
90 91 87 82 80 82 82 80 80 86 86 82 92 85 85 99 98 98 96 92 97 96 96 96 84 76 88 99 99 99 97 99 96 93 97 97 52 44 48 52 52 49 47 41 40 56 57 69 69 65 62 52 47 46
85 82 83 87 90 91 89 85 87 86 86 78 83 89 94 89 97 97 95 92 93 94 93 91 88 89 96 99 99 99 97 96 97 93 90 81 67 76 71 62 61 56 45 45 43 46 71 77 62 54 49 46 43 43
90 90 86 86 87 87 88 86 89 89 89 95 86 88 97 94 96 96 96 95 88 96 88 84 92 97 96 99 98 97 94 96 100 97 94 93 91 90 92 87 84 74 54 50 69 79 66 56 51 49 51 57 49 50
83 83 81 80 72 77 72 79 93 98 75 93 94 94 97 90 95 91 92 94 94 77 88 92 96 97 95 98 98 96 95 95 90 89 95 92 96 97 98 99 95 81 76 70 61 60 64 78 90 82 56 51 55 62
77 80 81 71 81 91 95 98 88 79 88 98 98 98 94 95 89 81 88 94 83 89 93 96 96 97 97 97 96 96 95 96 95 96 96 96 96 96 95 96 96 97 94 93 93 94 95 94 91 82 79 82 82 80
82 87 78 76 90 92 90 73 86 96 96 98 97 96 96 96 94 94 87 86 94 96 96 96 96 96 96 95 95 95 96 95 95 95 95 96 96 96 95 94 95 95 95 95 95 94 93 91 83 79 88 93 89 81
91 88 85 95 95 86 74 84 90 91 97 97 96 96 95 91 95 81 88 89 96 96 97 96 96 95 95 95 94 95 95 96 95 94 95 95 95 96 95 95 95 94 92 91 91 92 90 86 86 89 90 86 79 75
93 94 98 95 80 58 87 97 96 96 96 97 96 96 96 93 76 82 93 93 97 96 96 96 94 96 94 94 94 96 96 96 94 94 94 95 95 95 95 95 94 93 92 91 88 88 89 86 84 82 78 74 74 73
89 94 96 73 58 64 89 97 97 97 96 96 96 95 96 95 95 91 89 72 82 93 92 94 95 94 95 94 96 95 96 96 92 91 93 93 89 87 88 85 85 82 81 80 80 80 83 84 82 78 76 75 80 84
94 98 84 61 60 67 94 96 98 97 96 95 96 97 96 96 94 90 85 71 88 96 94 94 94 94 95 95 95 95 94 88 91 88 87 91 88 86 84 80 75 72 73 77 83 85 87 90 88 83 85 86 83 79
100 93 66 54 65 78 89 91 95 93 95 96 96 96 96 96 95 95 92 89 95 94 94 94 94 93 89 93 92 94 89 78 78 81 83 80 86 86 87 86 84 90 93 94 93 95 97 90 88 87 84 86 84 89
76 60 54 58 66 68 61 90 88 92 89 95 96 95 95 95 94 87 96 95 95 93 94 93 95 84 80 78 77 83 81 80 81 81 81 84 87 89 90 93 92 89 91 96 92 96 97 93 92 85 86 84 83 86
54 66 78 79 82 67 90 93 95 93 93 94 95 95 95 96 91 91 96 95 94 92 91 93 93 86 70 75 80 85 92 83 86 94 96 85 88 91 92 95 96 96 94 91 90 91 91 95 91 87 88 89 94 97
58 66 84 96 95 84 97 96 98 91 97 96 95 95 95 95 96 95 95 94 92 93 93 93 92 88 90 84 82 86 94 99 90 92 100 97 92 91 93 96 100 99 92 88 95 94 95 92 91 91 94 96 96 95
90 98 92 100 100 88 99 97 100 100 100 98 97 95 95 94 93 96 94 94 95 94 94 94 94 88 85 90 87 92 100 90 87 93 100 90 90 92 95 93 94 99 99 98 95 97 95 95 94 94 94 99 100 94
92 98 98 92 97 94 97 91 87 96 100 100 99 94 94 95 97 94 93 94 94 96 96 97 100 96 95 97 98 93 94 93 90 95 90 92 95 96 97 99 100 99 100 100 100 100 100 95 94 97 98 92 98 100
98 98 99 96 98 98 98 98 100 100 99 93 89 99 98 98 96 93 93 96 96 94 85 89 91 96 97 97 92 83 82 90 96 94 88 88 84 91 96 100 100 100 99 100 100 98 93 92 98 99 99 99 100 100
99 98 94 99 99 98 98 98 100 96 89 96 98 100 100 90 97 96 96 96 95 91 93 93 87 83 87 94 91 90 85 80 77 95 98 98 94 86 89 94 96 98 97 92 93 100 95 98 98 100 98 100 100 100
100 98 98 100 97 98 96 94 98 96 92 93 84 96 94 96 97 97 96 95 96 98 94 92 96 93 95 91 90 90 95 97 100 99 100 100 100 96 92 98 98 98 99 98 97 94 96 95 90 93 95 94 94 92
98 98 98 99 100 97 96 95 95 96 94 97 95 98 99 100 98 97 97 97 96 96 92 87 84 91 95 93 99 97 90 92 98 100 100 100 98 91 95 98 96 100 100 100 100 98 96 95 95 94 93 93 94 95
98 100 98 100 98 97 96 97 97 97 98 96 99 100 100 98 100 95 95 91 88 87 91 92 93 89 86 87 89 92 98 96 99 97 100 99 92 91 96 91 98 94 95 99 98 96 95 95 94 94 95 95 96 95
100 100 100 100 99 99 97 95 97 98 97 98 98 98 98 95 98 95 98 96 95 93 90 87 84 80 80 84 84 85 90 96 96 99 98 100 100 98 95 97 96 97 100 100 96 95 95 93 93 95 96 95 95 95

GFSWCAN_925_rhum_204.txt.gz
RH
86 87 87 87 84 80 81 81 81 81 81 79 79 80 79 76 76 78 83 80 86 88 71 65 67 84 84 81 92 90 88 75 73 84 90 81 76 80 92 78 87 66 76 96 82 77 81 39 42 44 36 38 36 40
86 84 83 83 82 81 79 79 79 79 79 78 77 76 75 75 74 75 79 73 80 98 78 72 72 68 69 75 94 76 82 75 68 79 88 94 83 80 87 89 66 87 67 56 61 67 44 43 39 38 40 42 38 40
85 82 83 82 81 80 78 80 79 79 79 78 77 77 78 81 86 85 87 84 90 88 81 75 72 59 56 66 63 93 74 81 76 66 84 90 92 70 86 77 65 74 92 95 96 70 56 50 48 48 44 43 40 42
84 81 80 78 80 81 80 80 78 77 80 79 77 78 84 85 85 86 92 89 98 98 97 70 47 49 48 56 60 75 73 64 60 69 92 91 92 73 82 69 62 54 48 51 60 53 60 62 48 44 58 48 50 52
82 80 84 79 80 80 78 80 88 87 86 87 88 89 89 89 88 90 90 91 95 93 87 69 55 54 52 50 52 54 63 76 83 88 91 87 71 75 71 69 85 56 54 58 56 33 39 47 40 63 64 55 50 62
85 79 82 74 81 78 84 94 88 88 87 81 78 77 79 80 81 85 84 55 50 94 98 94 59 63 55 56 60 59 59 63 74 86 86 80 62 70 79 84 51 48 43 41 49 41 43 48 71 61 64 60 61 65
82 85 89 84 80 84 93 92 86 81 76 80 82 81 81 85 87 92 81 54 61 76 97 93 87 64 50 52 60 67 64 70 74 80 86 84 74 78 92 92 56 48 41 39 40 47 67 54 49 55 60 63 66 75
95 96 95 87 80 86 94 88 80 79 82 82 78 80 83 86 86 86 79 82 87 94 95 96 80 85 50 56 70 73 75 78 84 84 79 78 75 76 93 66 54 48 46 43 40 37 40 40 37 52 75 76 79 84
95 95 92 84 86 93 94 84 80 82 81 76 80 83 79 75 92 77 78 75 76 86 98 99 94 79 65 71 79 78 69 96 89 92 82 74 86 94 70 58 50 45 46 45 42 42 42 44 45 51 82 78 84 86
95 94 85 85 92 95 90 81 78 78 76 82 80 88 95 69 53 80 67 91 97 96 94 90 78 92 69 84 93 97 97 96 97 88 77 91 87 58 49 44 41 39 38 39 47 49 48 49 49 68 78 72 72 77
95 87 84 92 94 86 80 82 86 90 84 80 82 98 47 62 81 95 97 98 95 97 98 97 96 94 79 94 92 97 96 96 97 91 92 97 85 57 50 51 46 43 42 42 42 40 39 41 44 61 76 77 77 69
85 91 92 85 84 87 89 90 90 87 88 93 96 90 89 89 99 97 96 95 97 96 96 97 95 80 86 94 98 98 96 97 96 95 97 97 58 61 62 61 54 48 46 46 45 45 42 43 44 67 78 70 62 62
90 90 89 86 84 81 81 83 85 87 89 86 80 91 93 91 90 100 94 94 96 93 96 94 88 93 93 97 98 99 98 95 96 99 87 85 85 79 85 86 85 80 72 53 50 49 47 47 68 73 68 63 69 83
85 84 86 87 87 86 85 88 81 87 96 96 94 89 94 97 98 96 98 97 93 94 96 88 90 97 96 100 93 100 92 98 96 96 95 91 87 89 87 87 92 90 87 84 74 58 57 79 74 61 60 70 88 94
81 80 82 77 74 85 85 88 89 99 92 100 90 89 97 89 96 96 94 96 88 89 86 93 97 97 97 99 95 97 95 96 94 94 92 92 94 94 92 92 93 91 87 84 87 88 75 78 89 95 97 98 97 96
68 74 73 69 80 84 90 90 93 80 84 96 92 92 92 98 94 94 91 92 84 86 92 95 96 99 95 96 96 96 95 95 93 94 94 94 94 94 95 95 95 95 95 94 93 91 92 90 90 95 97 97 94 87
74 81 85 92 94 98 98 88 88 89 86 98 98 96 97 96 96 96 90 84 87 96 96 96 96 96 96 95 95 95 95 94 95 94 94 95 95 95 95 95 95 94 94 94 94 93 94 96 95 89 91 96 94 92
74 76 87 96 97 98 80 80 86 81 94 96 97 96 96 95 96 82 90 86 96 96 96 96 96 95 96 95 93 93 96 94 95 95 95 95 95 95 94 94 94 94 93 93 94 94 90 88 88 92 94 96 94 93
82 84 95 96 90 68 72 97 96 100 94 97 96 96 96 93 87 84 89 92 96 96 96 95 94 96 94 93 93 93 96 95 95 95 95 95 95 95 93 91 91 92 92 92 90 91 94 94 94 93 93 88 86 86
82 91 96 97 73 60 81 98 100 98 97 97 96 96 96 96 93 90 91 88 84 94 94 95 96 94 95 93 95 96 95 96 96 92 93 91 85 79 81 80 81 80 82 84 86 86 87 88 89 86 83 81 82 85
82 91 96 78 66 72 94 96 97 98 97 95 96 96 96 96 95 92 87 72 88 96 95 94 94 94 94 95 95 95 94 90 92 88 85 87 79 79 81 82 80 81 81 81 84 87 89 94 93 88 84 83 86 93
91 96 79 60 64 78 87 92 93 93 97 96 96 96 96 96 97 98 92 92 96 95 94 94 93 94 93 93 94 88 82 78 80 81 84 84 87 87 86 88 88 93 95 97 95 95 95 93 89 87 84 91 94 91
80 67 57 58 67 69 63 87 83 92 87 94 96 95 95 96 97 89 97 96 95 94 94 94 95 92 89 89 82 86 90 86 88 89 85 87 89 91 92 94 97 92 93 99 98 100 100 96 93 87 90 88 88 91
56 66 75 75 85 68 90 97 95 93 93 95 95 95 95 96 91 91 98 95 94 93 92 94 94 84 72 78 83 90 97 90 88 93 99 87 88 93 96 99 100 98 99 96 94 94 93 96 94 93 94 91 92 94
58 58 83 96 99 86 100 99 99 93 98 97 96 95 96 95 95 96 97 95 92 92 92 94 93 92 91 85 82 88 94 99 92 92 100 95 90 88 92 97 100 100 95 92 97 95 96 93 93 93 93 98 94 95
78 94 81 100 100 89 99 99 100 100 99 98 98 97 96 95 94 98 95 95 95 94 94 94 94 88 83 90 88 92 100 88 87 95 100 97 95 96 98 97 96 96 98 99 97 98 97 97 98 98 98 100 99 96
92 97 98 92 97 95 96 92 86 96 100 100 100 96 95 96 97 94 92 94 93 97 99 96 100 97 96 99 99 92 97 92 92 98 98 97 97 96 97 100 99 100 98 98 99 100 100 99 100 100 99 99 100 100
96 97 98 96 98 98 99 100 100 100 100 94 88 99 96 95 97 95 95 96 96 96 87 88 90 95 95 96 96 84 81 91 95 92 82 81 88 94 97 97 97 100 98 100 99 97 96 99 100 96 99 99 100 99
98 96 94 100 99 98 98 96 98 98 89 95 97 100 100 89 97 96 97 97 96 94 90 86 85 83 87 91 93 91 88 81 77 97 99 99 93 86 93 97 98 100 100 96 97 99 98 98 98 96 95 97 100 100
99 97 99 100 96 98 97 96 100 97 94 92 85 98 95 97 97 96 96 96 94 96 93 91 91 90 93 89 88 88 96 98 100 100 100 100 100 96 95 99 98 99 100 98 95 92 96 91 91 92 92 92 93 93
97 98 100 99 100 97 97 96 95 94 93 98 95 97 97 100 99 98 97 97 97 97 92 85 83 91 95 93 98 96 86 92 98 100 100 100 98 93 97 98 97 99 99 98 96 95 94 92 93 92 92 93 94 94
97 100 98 100 99 96 96 97 97 98 99 98 100 100 100 97 99 94 97 94 93 86 92 94 94 90 86 88 89 90 95 93 96 96 98 97 90 90 93 91 96 97 97 97 96 95 95 94 93 94 94 95 95 95
100 100 100 100 99 97 96 94 95 98 97 100 98 98 98 95 96 93 95 91 93 91 90 84 80 77 76 79 81 84 90 98 98 99 99 100 100 97 95 97 95 97 98 98 95 96 94 92 92 94 95 95 96 96

GFSWCAN_925_rhum_207.txt.gz
RH
86 85 84 83 82 81 81 80 78 79 79 79 79 78 77 75 76 77 74 77 86 92 75 67 66 80 82 89 93 68 75 64 95 96 86 76 91 73 73 83 94 91 92 77 82 94 89 59 46 58 62 59 55 57
86 85 83 83 83 81 80 81 81 76 77 79 79 79 77 78 81 84 94 81 83 99 81 70 68 65 70 70 80 76 76 75 78 91 96 95 77 76 71 88 47 75 74 93 94 87 66 66 54 49 55 65 62 67
85 83 83 80 80 80 75 77 78 82 78 76 81 83 80 79 77 80 86 88 95 97 82 82 82 64 63 70 71 89 69 67 72 66 81 89 93 80 86 66 65 48 67 68 83 56 51 45 42 44 47 64 62 59
86 84 84 83 80 86 79 75 79 78 87 89 84 86 87 87 87 86 88 86 98 96 97 69 49 56 49 48 55 70 68 61 61 70 88 92 90 70 76 66 64 69 59 59 62 57 46 38 35 34 47 62 62 56
80 85 86 84 84 84 83 81 80 91 94 90 91 81 75 76 79 80 83 80 89 86 88 69 59 60 58 58 58 56 63 73 82 91 94 90 76 72 67 65 78 51 58 67 68 43 43 42 38 41 54 71 68 63
83 76 79 80 84 89 82 79 85 96 87 80 76 78 83 80 80 84 91 49 53 99 97 95 60 58 47 48 55 62 63 65 76 87 88 79 65 72 89 83 53 47 43 45 52 41 40 42 38 41 71 64 72 61
94 95 95 96 96 96 84 77 88 96 87 77 80 82 79 76 80 86 79 49 63 84 99 96 96 68 54 49 61 60 56 66 74 88 92 85 76 73 90 90 54 49 45 42 40 41 48 44 46 44 67 64 64 69
93 91 95 97 95 93 82 87 95 94 80 77 77 74 76 79 81 83 72 78 87 93 95 97 92 76 49 49 73 72 73 79 95 85 81 76 76 87 93 67 55 48 45 46 44 41 41 38 38 46 47 50 64 79
93 93 94 94 95 83 84 94 94 88 77 78 86 87 73 82 94 78 74 74 86 82 98 100 96 80 68 67 60 73 88 96 84 93 82 87 87 93 60 48 45 45 48 48 46 46 46 46 44 43 44 48 68 84
93 95 95 95 87 85 95 93 80 80 91 93 86 86 94 58 58 72 73 89 94 98 99 97 86 93 74 83 94 97 98 96 98 91 83 96 83 54 49 52 46 43 42 42 53 55 51 50 48 46 45 49 67 76
94 94 88 87 94 91 85 86 90 92 87 75 85 99 54 67 80 93 100 99 95 96 98 97 96 96 85 94 86 92 96 96 97 88 92 96 95 86 67 70 71 73 67 54 45 44 42 43 44 44 45 54 75 84
89 88 95 93 90 87 83 80 80 82 83 82 84 99 99 88 94 97 98 94 98 96 97 98 97 91 89 97 99 94 96 95 94 94 97 97 89 68 74 73 70 69 73 78 74 58 50 47 45 45 48 77 87 82
92 95 88 86 88 88 88 90 85 88 82 93 96 96 92 90 91 98 98 94 99 96 96 96 92 91 92 97 99 99 98 95 94 97 92 96 71 74 80 78 78 73 74 76 79 81 73 56 53 56 87 76 81 93
87 86 82 79 80 81 82 84 88 92 100 98 95 87 90 92 98 92 95 97 91 97 94 89 92 94 96 97 95 96 90 97 96 94 94 79 83 85 84 80 83 83 82 85 86 82 85 67 81 82 75 81 91 95
86 81 76 69 81 88 89 90 89 97 99 96 94 97 98 90 96 96 96 97 94 96 94 93 98 96 96 96 95 96 93 95 92 92 83 90 88 90 92 91 90 90 93 95 96 89 86 84 92 96 95 95 97 97
88 86 75 77 90 95 93 89 100 98 94 96 98 97 93 99 95 95 96 96 93 97 97 96 96 96 95 96 96 95 94 95 91 94 93 92 91 93 94 94 94 95 95 94 95 95 93 90 91 95 96 97 97 97
86 82 74 79 95 97 98 95 90 91 98 85 100 96 93 95 96 96 95 90 87 98 97 96 96 95 96 95 95 94 95 94 95 94 93 94 94 94 94 94 94 95 94 94 93 94 94 95 94 91 93 96 96 95
84 85 83 84 91 90 88 83 85 88 91 96 98 96 96 96 93 85 94 95 96 95 96 96 95 94 96 96 93 92 92 95 95 95 94 94 94 94 94 94 94 94 94 94 93 93 91 87 88 91 93 93 92 92
92 87 86 84 90 79 67 93 95 100 95 96 98 96 96 94 84 92 93 93 96 96 96 95 94 97 94 93 93 90 94 95 96 95 95 94 94 94 93 93 92 91 93 94 93 93 93 95 93 92 89 86 89 86
86 84 84 90 91 61 73 96 100 98 98 96 97 96 96 96 92 84 85 88 90 94 94 95 95 94 95 93 94 94 95 95 94 87 86 81 78 80 84 86 84 80 78 79 82 82 83 87 91 89 87 87 86 90
82 92 83 93 70 76 86 97 95 98 98 99 96 96 96 96 96 93 93 70 90 96 95 94 94 93 95 95 96 96 95 93 92 90 90 85 79 83 85 86 86 85 87 86 85 87 89 92 95 96 97 96 97 97
92 90 90 70 65 75 87 95 94 94 99 97 97 96 96 96 96 96 92 92 96 95 95 94 92 94 93 94 95 95 90 81 82 82 83 85 86 86 88 94 91 92 94 97 96 95 96 95 90 94 96 100 96 91
87 73 66 59 67 70 65 82 85 92 84 91 96 95 96 96 96 86 96 97 95 94 95 94 96 96 95 95 88 88 93 87 90 92 86 85 89 92 94 94 99 96 93 98 99 100 100 100 98 89 88 86 88 93
61 63 74 73 87 70 92 98 96 94 93 95 97 96 95 95 94 93 97 95 94 94 93 94 94 92 91 83 86 90 97 91 88 93 97 91 87 93 97 100 100 100 99 98 95 95 95 97 97 94 94 91 93 94
68 58 82 88 100 89 100 100 100 94 98 97 96 97 96 96 95 95 94 95 93 93 93 95 95 93 92 87 83 87 93 97 92 92 100 95 88 85 88 89 99 100 98 95 100 99 99 95 94 94 96 98 94 95
78 82 81 100 100 89 99 98 100 99 99 98 97 97 98 97 95 95 94 94 96 95 94 95 94 86 83 90 89 92 100 92 88 96 100 100 99 99 99 97 96 94 98 98 100 100 97 97 98 98 95 96 99 95
84 93 97 91 96 93 98 93 86 95 100 100 100 97 96 96 98 96 93 95 94 96 97 94 99 98 97 98 97 91 95 95 93 96 95 96 98 98 99 100 98 99 100 99 98 100 99 98 99 100 99 99 97 97
92 95 95 96 99 97 99 100 100 100 100 96 90 95 95 92 98 97 97 96 96 96 86 87 88 92 95 96 96 86 79 79 88 89 84 84 89 92 96 98 100 100 99 97 97 95 97 98 98 98 98 96 97 96
98 98 92 100 100 99 100 96 94 97 91 95 94 98 100 93 98 98 96 96 96 92 83 83 82 82 84 89 92 92 88 82 78 96 98 98 92 83 90 94 96 96 96 94 94 96 99 98 96 95 96 96 96 96
98 97 97 100 98 98 98 94 97 98 92 92 87 97 96 98 98 96 96 96 94 94 90 88 88 87 90 87 86 83 92 94 96 99 100 100 99 95 93 97 96 96 97 96 95 95 95 93 93 93 94 93 94 94
97 97 99 99 100 99 97 96 96 89 92 98 96 97 98 98 98 96 96 96 96 95 87 80 80 87 90 90 94 93 84 89 96 100 100 100 99 92 92 98 96 98 97 96 96 95 94 93 92 93 92 93 94 95
96 98 98 100 100 96 96 97 96 97 99 97 99 100 100 98 98 92 95 93 93 89 92 89 88 85 84 84 87 89 89 90 96 98 99 99 95 90 96 93 97 98 97 96 95 94 94 94 93 94 94 95 95 95
100 100 100 100 100 98 97 96 97 98 96 98 98 99 98 97 97 93 94 89 90 92 92 84 82 80 78 79 82 83 88 96 97 99 98 100 100 98 94 97 98 99 99 95 93 93 94 94 94 95 95 95 96 97

GFSWCAN_925_rhum_210.txt.gz
RH
86 83 86 84 83 82 81 81 80 82 77 71 79 82 81 77 79 82 81 75 87 98 89 73 70 81 86 92 92 73 81 71 91 97 95 78 91 73 86 73 82 89 82 79 78 78 73 66 67 90 96 86 74 57
85 86 84 79 83 82 78 82 76 79 81 79 78 78 83 88 84 80 87 81 86 99 83 70 73 69 67 65 73 77 84 81 81 99 96 98 84 84 66 76 47 72 61 77 64 58 42 38 51 69 77 86 75 68
86 87 83 85 86 80 86 85 80 80 81 78 84 95 85 90 91 90 90 89 98 99 84 80 85 63 66 73 69 92 75 71 82 65 80 86 91 72 90 78 61 58 53 63 65 50 44 49 53 45 41 81 75 63
87 87 84 84 83 85 85 80 76 85 76 84 95 91 95 84 78 76 80 80 89 84 96 67 50 58 44 49 60 79 77 65 60 66 84 93 92 68 81 72 70 57 57 64 64 51 47 38 32 30 47 47 45 51
86 88 86 81 82 83 84 87 90 79 77 90 95 84 78 76 83 82 78 72 79 87 86 74 64 60 58 61 59 66 81 81 84 89 94 91 76 78 74 69 81 60 64 70 66 42 42 42 35 33 38 41 43 48
94 95 94 94 95 94 95 96 95 80 77 95 95 87 77 83 82 79 90 53 55 98 99 95 60 61 45 49 61 71 68 70 76 94 90 85 66 74 93 85 52 44 41 42 51 41 42 40 38 36 40 41 42 51
94 94 94 91 90 95 97 96 90 84 92 94 95 80 74 75 77 82 86 54 63 84 99 97 97 71 58 55 59 52 49 62 71 92 92 82 75 76 93 92 53 42 40 41 40 42 49 44 47 38 37 41 46 64
94 95 95 92 91 93 95 94 82 88 94 94 83 79 88 90 90 87 74 75 84 92 92 100 94 75 51 48 70 69 69 65 73 87 81 86 81 95 95 62 49 54 61 50 44 42 43 41 42 43 43 43 54 68
95 93 92 94 94 94 94 84 89 95 85 84 92 86 72 81 92 78 72 68 78 79 97 99 96 88 71 72 70 77 81 99 84 96 94 88 91 93 78 95 90 83 95 91 75 50 47 50 48 47 46 45 51 51
93 95 93 94 93 88 90 92 87 90 94 89 77 83 94 60 70 69 68 89 94 98 99 97 96 95 77 95 94 98 96 96 98 89 88 97 87 84 67 58 60 62 62 70 93 85 69 59 55 53 51 47 45 45
95 94 94 89 92 95 93 87 80 80 76 68 84 99 62 72 75 90 99 97 98 97 98 97 98 97 80 94 82 92 96 97 96 86 96 96 96 74 60 65 63 64 64 64 63 68 70 79 58 52 52 49 49 55
95 95 91 95 91 86 88 89 90 90 81 81 80 90 99 92 94 93 100 94 97 97 97 99 97 98 92 98 99 93 96 95 95 90 97 96 85 65 69 73 71 70 71 73 69 71 70 72 79 58 51 54 58 72
95 96 91 87 83 79 79 81 81 84 91 87 96 96 94 89 98 99 100 93 100 95 97 98 95 92 91 96 99 100 99 94 93 96 95 88 65 72 79 77 77 72 71 76 78 76 76 77 78 78 62 78 87 96
92 87 87 83 83 84 90 95 96 94 90 95 98 93 90 90 99 91 92 96 90 98 96 95 100 95 95 100 96 97 85 96 94 93 88 71 83 89 84 81 87 91 91 90 89 89 85 85 86 87 92 98 97 98
87 91 91 83 78 83 91 92 85 85 97 97 93 96 97 86 95 93 95 98 94 96 92 97 97 97 96 96 95 95 92 94 90 92 90 90 91 92 92 91 92 90 92 92 95 96 93 91 96 97 97 96 96 97
89 89 80 72 80 94 93 98 96 95 99 94 98 100 96 99 96 95 96 95 92 98 97 98 97 96 94 96 95 96 94 96 92 94 93 92 92 93 93 93 93 94 93 94 94 95 95 92 91 95 96 96 97 96
84 83 81 86 92 88 90 89 91 96 96 96 100 97 92 93 96 97 96 95 96 96 97 96 96 95 95 95 95 94 95 94 94 94 94 94 95 94 94 93 93 93 93 93 93 94 95 95 94 87 92 96 95 93
80 83 86 82 81 82 87 89 89 97 98 99 97 95 96 95 93 85 94 96 96 96 95 96 95 95 96 96 94 92 93 91 96 95 95 94 92 92 93 94 93 94 93 93 94 93 93 92 91 93 94 94 93 92
79 89 92 79 84 89 71 88 96 99 96 95 97 96 96 94 80 87 92 93 96 95 96 95 94 97 95 93 93 92 93 94 95 95 89 83 86 88 88 84 83 83 88 92 93 94 94 95 95 95 95 90 90 91
78 85 76 90 84 74 75 91 99 97 100 94 98 96 96 96 95 87 88 89 89 94 94 95 95 95 95 94 94 94 94 95 94 87 83 79 79 83 87 87 83 84 82 81 83 83 86 86 93 94 92 90 91 93
73 82 83 89 90 85 82 99 97 98 98 99 97 97 97 96 96 97 96 69 89 97 96 95 94 93 96 96 96 96 95 95 90 89 88 82 80 82 85 89 85 84 87 88 86 89 90 95 99 100 98 97 98 100
79 82 90 82 68 73 88 98 95 96 98 96 97 97 97 96 96 96 93 93 96 95 95 95 94 94 93 94 95 96 90 82 84 83 81 84 85 87 88 93 93 92 93 97 97 96 96 98 91 94 96 96 98 97
90 81 78 60 68 72 67 81 87 93 82 87 94 94 97 97 96 89 96 97 96 95 96 94 96 96 95 95 89 88 92 87 88 91 91 85 89 93 95 96 99 97 93 97 100 100 100 99 100 93 91 89 89 91
68 61 70 72 92 76 94 99 98 97 96 96 97 96 96 98 96 95 96 94 96 92 92 95 95 92 94 94 93 94 97 91 87 94 98 92 88 91 95 99 100 100 100 100 100 100 99 98 96 95 95 90 92 95
77 66 80 90 100 88 97 100 100 96 98 100 96 98 96 98 97 97 95 96 92 93 93 96 95 94 92 93 93 91 95 96 93 95 100 96 92 87 88 88 94 100 99 97 100 99 99 98 96 95 96 98 96 99
90 81 86 99 100 91 97 96 100 99 99 100 98 97 99 96 95 97 96 95 95 96 95 96 94 87 83 90 90 93 98 94 88 96 100 99 100 100 100 96 95 92 96 100 100 100 98 98 100 98 98 99 100 93
89 89 98 87 95 90 97 93 87 96 100 100 99 98 96 97 97 96 95 96 94 96 94 92 97 97 96 96 92 88 87 90 94 96 96 96 98 98 98 100 98 97 98 97 97 99 98 100 100 100 99 98 96 97
88 96 96 96 98 95 99 100 100 100 100 96 93 98 99 92 94 96 97 96 96 96 85 84 84 87 91 93 93 88 77 74 74 78 79 81 89 90 94 97 98 100 99 98 100 99 100 100 96 94 94 94 95 95
97 96 91 100 98 99 100 98 99 98 92 92 95 93 98 92 97 98 97 96 96 95 86 82 82 81 82 85 90 94 89 82 75 93 96 98 91 83 87 92 94 96 99 93 92 100 96 98 97 92 92 93 94 95
98 96 96 98 97 99 97 98 98 98 94 92 85 94 94 96 97 98 97 96 96 95 89 86 87 86 89 86 86 84 91 95 96 99 100 100 99 94 90 95 96 98 100 96 95 94 91 92 90 90 92 92 93 93
94 96 97 98 100 100 99 97 96 89 91 99 98 96 97 99 98 96 96 96 96 95 89 80 79 86 88 88 92 91 82 88 93 98 100 100 98 91 91 97 97 100 100 98 95 94 93 92 92 94 93 94 94 95
97 99 97 100 100 97 97 98 97 97 96 96 98 100 100 97 98 92 94 93 92 94 93 88 82 80 82 83 82 84 85 86 91 96 98 99 94 90 96 94 96 99 100 98 95 94 94 94 94 95 96 95 96 96
100 99 99 100 100 100 99 96 98 98 97 98 98 100 100 98 96 91 95 90 90 92 92 84 78 77 75 76 79 81 84 92 96 97 99 100 100 98 93 96 99 100 100 98 95 93 93 94 95 95 96 96 97 97

GFSWCAN_925_rhum_213.txt.gz
RH
86 85 87 86 84 88 82 85 85 82 85 82 81 78 83 85 86 89 85 81 88 100 86 81 75 83 83 92 94 77 90 87 90 99 96 74 97 67 75 56 79 70 82 89 71 68 76 65 38 58 52 32 69 69
87 87 87 87 85 84 83 86 88 85 79 87 79 80 92 91 86 86 88 85 92 100 91 78 71 70 70 69 78 88 85 79 78 95 97 98 76 72 67 89 52 71 56 57 57 47 33 29 34 31 58 75 71 60
77 85 85 86 84 88 86 85 78 81 78 80 74 83 95 87 87 83 79 80 92 97 83 84 86 54 54 67 68 94 73 66 75 69 92 92 92 72 88 73 77 60 53 68 66 50 45 41 37 35 36 56 46 33
81 83 85 86 86 82 84 87 88 91 96 84 74 86 95 87 80 76 83 84 90 84 97 66 51 54 46 46 54 79 77 69 68 72 95 93 92 80 79 68 70 56 54 59 60 49 43 40 37 36 36 35 37 50
92 94 95 94 94 94 95 95 94 95 95 87 81 92 94 95 81 82 80 68 76 85 88 76 63 57 58 64 65 68 86 86 87 92 95 90 70 73 72 70 80 53 59 66 75 45 43 42 36 34 38 36 35 38
95 95 95 94 94 90 89 94 95 95 91 83 89 94 94 92 77 77 91 60 57 96 99 99 60 56 44 51 58 70 73 75 84 94 91 81 62 73 94 82 48 41 39 39 48 42 43 42 41 41 43 41 39 40
96 95 94 94 95 92 90 93 94 93 82 85 94 90 86 82 85 93 87 61 71 88 99 96 96 71 61 60 67 72 63 72 75 80 92 82 79 95 93 91 54 72 89 89 78 88 89 78 78 58 50 45 42 41
94 94 94 92 91 92 92 95 92 85 91 90 87 89 89 89 88 87 78 83 85 88 92 98 95 78 52 62 80 64 60 62 75 71 86 84 92 96 96 90 80 71 62 69 63 65 82 80 69 63 49 50 51 52
94 94 93 94 94 95 89 87 91 93 92 90 89 67 62 79 90 75 68 80 94 93 97 99 96 92 75 78 79 78 81 99 83 96 91 82 93 95 93 92 78 62 68 72 65 63 62 81 76 70 56 54 55 52
94 94 95 94 93 88 94 94 87 82 90 82 64 80 90 62 73 71 71 87 92 97 99 98 92 97 90 94 92 96 96 98 97 87 89 97 95 81 57 60 62 65 66 66 82 80 70 72 67 77 75 68 55 53
95 94 94 93 94 94 88 88 83 81 78 72 75 98 65 84 80 87 99 98 98 97 98 98 96 98 80 100 94 93 96 96 96 87 96 95 93 62 61 68 66 66 68 70 70 70 71 73 73 71 72 76 60 55
94 91 94 95 90 84 81 81 82 85 78 83 83 95 98 92 93 92 100 93 97 98 95 99 97 97 96 98 100 92 97 96 95 95 96 94 59 63 74 78 75 74 83 88 85 86 82 74 71 71 70 78 70 55
96 95 93 88 88 84 86 90 92 96 88 90 89 95 92 90 97 98 96 91 100 94 95 97 97 90 92 95 96 97 98 93 89 95 91 88 67 76 89 88 86 77 77 82 87 87 90 80 77 76 76 80 79 96
94 90 88 93 92 88 85 92 91 81 88 82 93 96 96 91 96 91 92 92 86 98 95 96 100 97 96 100 95 96 85 95 89 94 96 80 91 90 88 89 89 87 90 91 92 95 93 88 89 89 96 97 97 97
89 90 93 80 68 82 95 88 97 98 89 98 95 96 99 88 92 88 90 93 94 96 96 98 97 98 97 96 95 95 93 95 91 92 91 92 92 93 92 91 92 91 92 92 93 93 94 95 94 95 96 96 96 96
90 84 68 77 88 91 92 91 83 87 97 96 95 100 97 99 93 96 97 96 96 97 97 98 100 97 94 96 95 96 94 95 93 94 94 93 92 92 93 93 93 93 93 93 93 93 93 93 94 95 95 95 96 95
83 80 79 79 84 84 80 82 85 96 96 95 100 98 97 97 97 96 95 95 95 97 98 97 97 95 95 95 95 92 95 94 94 93 94 92 94 93 92 88 92 93 93 93 93 93 94 95 94 90 92 95 96 97
79 77 84 85 76 75 84 84 94 98 100 100 95 92 96 97 96 84 94 96 98 98 95 96 95 94 96 95 93 92 94 93 94 95 90 90 90 91 91 89 87 87 92 91 90 91 91 91 91 93 94 95 94 95
82 85 88 80 80 85 79 90 97 99 99 97 96 97 96 95 80 81 92 94 96 95 96 96 94 97 93 92 93 92 93 94 94 95 93 82 84 87 89 86 82 82 84 88 86 89 92 95 95 95 94 91 91 91
82 76 71 81 82 94 79 93 98 93 99 95 99 98 97 96 96 93 87 88 88 94 94 96 96 95 95 93 94 94 94 94 94 87 84 77 78 81 86 90 85 85 83 82 84 83 85 85 93 96 95 91 92 94
81 78 77 83 93 97 84 100 100 100 98 99 97 99 97 96 95 97 98 69 89 98 96 95 95 94 96 96 96 96 96 90 91 91 92 86 82 84 87 90 88 85 88 89 88 89 90 94 98 100 99 98 97 98
82 78 80 87 75 74 90 100 94 95 99 95 95 97 98 97 98 96 94 93 98 95 95 95 94 94 93 94 96 94 87 81 85 93 85 85 85 87 89 94 94 93 93 97 96 96 98 99 94 95 97 92 97 99
90 85 86 65 72 74 71 82 88 95 88 87 96 93 97 98 97 95 95 95 95 95 95 94 96 96 95 95 95 95 95 96 89 90 92 91 90 91 95 96 99 97 93 96 100 100 100 99 99 95 91 90 92 95
78 65 69 75 93 79 95 99 98 98 98 98 98 96 95 99 97 97 97 94 95 95 93 95 96 94 95 93 91 95 98 91 89 94 95 94 89 90 91 96 100 100 100 98 99 100 100 100 97 96 96 92 94 97
71 75 77 92 100 89 94 99 100 96 98 100 99 98 96 97 98 98 98 97 93 94 94 95 95 95 93 94 89 89 93 93 96 97 98 95 94 89 88 87 91 100 99 98 100 100 100 97 97 94 99 98 95 96
92 84 87 96 100 93 94 94 100 98 99 100 99 98 100 97 98 95 98 98 96 95 95 95 94 88 84 90 89 90 91 92 93 94 98 98 99 100 100 98 96 92 97 99 99 98 98 98 99 97 95 98 100 94
97 88 97 84 93 87 96 91 86 96 100 100 99 100 99 100 98 93 97 96 96 96 94 91 95 95 95 93 90 87 82 84 85 88 94 96 98 99 99 100 98 96 98 98 98 100 100 100 98 97 98 97 98 100
90 99 94 96 98 95 95 100 100 100 99 94 92 100 100 93 91 99 96 96 96 96 87 83 83 84 88 92 91 88 78 73 72 74 78 80 83 88 92 96 98 100 99 99 100 98 98 96 95 96 96 96 97 98
98 94 89 100 99 98 98 96 97 96 88 92 96 96 96 95 96 98 99 96 96 96 94 83 82 80 80 81 87 89 93 83 74 95 97 98 90 84 90 93 97 99 100 97 94 100 99 99 97 93 94 94 95 97
98 95 97 99 98 97 94 96 98 97 93 91 86 92 90 94 94 96 97 96 96 95 93 83 82 82 84 83 83 82 86 92 93 96 100 100 100 94 89 95 99 99 100 99 96 94 91 91 88 91 92 91 91 91
97 95 96 97 98 98 98 99 95 91 93 97 97 96 93 98 95 95 95 95 95 95 94 83 80 84 85 87 89 88 81 86 92 97 100 99 99 91 90 94 96 99 100 99 97 95 92 91 92 93 92 92 93 95
97 98 97 100 100 97 97 99 98 98 99 98 97 100 100 99 98 91 95 96 96 95 98 95 84 82 83 82 83 82 84 84 91 97 98 100 98 91 93 88 97 100 100 99 98 96 93 93 93 93 94 95 96 96
99 99 99 100 99 99 99 96 98 98 97 99 98 97 97 97 97 90 95 91 89 88 90 88 80 78 76 77 79 82 83 88 92 95 98 100 100 98 93 98 96 96 98 97 96 93 93 94 93 94 96 97 97 96